GFSCGP_700_rhum_000.txt.gz
RH
22 22 27 25 24 21 17 15 14 20 24 21 19 22 24 28 27 30 29 29 29 31 30 50 61 69 72 75 75 73 71 84 90 77 51 45 51 63 58 57 61 67 73 78
17 25 25 22 10 21 19 18 17 21 24 20 24 20 27 31 34 33 35 38 39 44 52 58 60 66 58 40 46 62 66 67 68 69 54 56 62 61 60 64 64 74 83 92
28 30 7 14 28 26 23 22 32 30 29 24 24 24 28 32 37 41 42 45 52 55 54 58 59 54 43 41 41 46 47 49 54 57 65 64 64 62 63 70 92 93 90 84
32 24 28 31 33 26 28 37 31 30 27 23 22 21 29 33 39 46 50 50 54 57 61 70 61 36 38 45 54 58 58 59 61 65 72 69 66 69 82 82 56 56 54 54
36 38 38 37 41 23 39 32 24 34 30 26 24 26 31 32 37 46 56 60 63 65 69 72 59 50 50 55 58 60 61 61 62 60 59 61 70 84 64 60 56 51 49 60
37 28 37 45 38 24 30 42 36 36 34 36 25 29 43 36 42 49 61 69 72 71 75 63 58 58 55 58 63 66 63 64 65 72 77 78 68 56 57 61 60 57 69 72
37 41 46 26 44 44 36 36 36 49 52 48 36 30 45 46 47 52 60 67 78 84 82 84 88 90 71 67 66 69 73 79 83 80 73 63 60 67 75 75 72 82 81 82
33 45 44 42 41 42 41 39 47 54 59 38 31 23 45 52 54 54 60 66 73 82 85 91 78 70 78 70 56 55 45 53 65 73 68 72 76 75 79 87 95 92 92 80
38 44 40 32 32 41 46 46 33 42 53 50 24 41 50 52 56 57 60 65 68 74 79 77 98 100 93 100 91 75 80 80 83 78 77 74 76 88 98 98 96 92 63 29
40 46 39 28 51 50 40 36 41 41 61 51 29 31 57 53 59 57 53 57 61 73 93 95 98 90 91 90 79 82 89 83 80 94 88 100 99 97 90 82 64 41 22 12
38 47 43 49 47 47 46 45 45 36 44 50 52 34 41 46 50 55 59 62 67 69 78 87 98 95 94 92 74 89 92 98 89 95 100 99 90 81 62 63 41 18 12 11
14 26 40 38 31 17 42 46 43 50 46 52 64 51 48 51 58 60 66 78 79 77 71 73 71 74 78 91 90 93 95 85 80 98 100 74 61 56 43 27 20 14 11 11
18 56 50 44 60 55 45 49 46 56 52 44 67 56 52 57 75 79 81 79 83 75 70 75 73 78 75 68 72 61 62 70 69 79 76 50 36 29 27 22 16 14 20 33
12 52 40 46 37 38 38 39 40 41 52 56 57 52 54 56 80 72 72 81 77 79 79 84 97 76 67 53 35 48 82 82 74 75 82 60 63 41 37 35 32 36 54 66
22 35 33 32 39 43 42 41 42 41 40 43 45 49 49 64 69 74 77 72 83 74 87 88 91 67 45 34 39 64 71 76 75 91 91 72 74 64 56 42 62 67 84 82
22 32 26 29 51 48 48 46 46 43 40 43 50 51 57 72 73 71 59 73 77 79 85 92 67 39 50 67 73 62 67 77 98 83 79 63 90 98 99 84 91 84 93 84
27 27 30 43 38 35 59 41 47 47 47 52 53 61 77 82 76 69 62 74 78 93 89 58 38 94 98 75 54 68 66 42 79 99 95 81 83 94 95 80 61 85 95 77
30 32 36 40 48 78 59 53 55 56 54 56 56 80 97 85 66 69 77 92 94 86 45 45 90 91 95 71 78 66 36 20 40 78 94 86 71 82 62 34 78 98 96 79
36 38 41 52 77 50 49 66 55 65 56 70 76 76 68 70 72 82 97 98 85 42 57 83 84 86 72 82 76 60 30 61 81 84 87 98 83 97 56 54 90 98 90 70
39 46 50 77 90 74 55 70 79 72 75 96 81 81 82 75 75 87 81 77 53 43 69 83 83 78 78 74 68 49 59 63 67 64 70 94 93 96 82 72 83 93 79 86
46 52 62 96 96 79 58 76 60 78 82 84 78 90 91 73 81 78 77 85 76 88 86 83 72 70 71 69 62 69 58 63 89 61 54 72 98 97 85 78 94 78 70 87
47 68 72 90 96 87 78 87 83 80 88 90 89 95 73 71 70 77 88 78 91 89 83 74 73 76 66 62 79 83 67 52 46 64 60 70 82 81 78 93 83 54 73 54
65 63 67 75 62 77 89 89 84 86 96 92 99 89 59 54 80 87 81 91 92 89 77 79 83 78 74 96 98 96 73 51 51 57 68 82 90 100 94 88 42 39 39 47
49 49 67 74 63 77 90 99 88 90 82 98 98 91 75 90 86 84 93 93 86 81 76 87 76 69 89 74 72 72 48 57 56 63 73 81 84 92 80 38 31 33 33 47
51 50 53 75 70 84 97 82 76 72 91 98 99 93 96 80 93 100 90 79 77 84 88 72 62 80 51 45 47 34 43 55 58 68 70 74 84 58 29 26 28 24 32 48
39 48 71 81 93 92 92 95 93 90 100 99 98 71 69 96 88 74 66 51 40 32 30 24 25 28 26 30 38 40 45 58 69 70 76 82 45 25 24 28 28 30 34 44

GFSCGP_700_rhum_003.txt.gz
RH
20 25 26 25 22 20 18 17 20 24 23 21 17 26 27 28 29 30 32 31 31 28 42 51 54 59 63 65 71 74 62 74 88 75 71 60 56 59 61 61 70 74 63 61
19 24 27 23 20 11 16 19 25 23 26 18 22 26 26 29 32 32 31 32 33 30 30 48 57 59 57 62 72 75 63 54 66 68 70 65 71 77 76 76 64 68 76 86
23 26 10 27 26 19 24 21 28 29 28 13 23 29 31 35 38 39 41 44 46 40 36 39 51 59 59 53 43 44 51 57 61 64 70 74 77 80 76 67 71 76 73 49
26 19 31 32 32 26 32 29 27 24 22 24 24 33 32 37 39 45 51 56 54 47 45 43 39 37 34 43 47 57 62 62 65 64 71 66 64 66 68 78 76 63 60 63
37 39 38 37 35 23 40 28 18 16 29 28 25 28 38 39 47 48 48 50 48 54 54 51 51 54 48 51 58 60 58 60 60 64 64 68 72 71 60 63 58 60 61 68
36 32 30 29 25 30 35 36 35 36 36 40 32 33 42 53 52 54 57 59 63 58 71 72 69 58 56 59 60 56 60 60 56 54 48 44 42 46 54 49 49 62 72 90
41 42 36 38 45 44 36 38 46 54 68 59 40 38 58 54 54 53 64 72 71 67 61 59 68 82 74 71 69 48 41 39 44 49 52 57 58 63 70 68 95 98 92 93
40 46 46 25 43 41 41 42 42 62 82 52 28 46 57 50 57 61 61 52 64 70 71 79 81 87 90 93 95 63 50 53 56 64 65 67 68 88 98 66 99 97 90 75
46 48 42 11 15 41 46 23 31 42 44 50 44 52 51 53 56 57 57 62 63 67 68 71 76 77 85 94 97 83 74 83 87 92 92 94 96 99 94 99 96 79 66 31
51 46 34 49 52 46 37 32 44 38 61 61 41 53 54 55 58 54 56 55 58 72 78 78 68 67 81 89 83 83 73 86 100 83 81 96 98 99 98 93 73 50 33 34
47 40 44 49 44 46 49 48 40 36 39 62 81 48 47 57 53 53 55 60 67 71 72 72 76 71 77 90 88 72 81 78 63 71 99 90 90 74 67 64 51 44 43 46
24 39 41 40 40 17 33 42 46 42 60 55 61 39 46 48 57 68 67 64 74 75 73 69 68 67 76 75 76 71 58 37 22 25 30 35 30 74 84 74 57 42 57 31
18 25 42 48 56 45 44 49 46 46 45 42 59 45 49 55 57 68 83 74 64 68 72 70 75 68 80 89 93 70 38 22 26 41 55 49 50 85 97 100 72 92 83 60
16 27 27 46 44 43 40 39 40 43 51 45 48 43 43 62 67 75 75 73 73 70 74 77 79 78 93 88 65 34 27 24 36 30 29 56 52 73 81 50 73 94 96 66
12 34 29 28 27 35 43 44 44 43 42 44 40 45 57 62 71 74 72 75 80 82 60 63 75 80 81 50 31 37 31 25 19 15 22 44 65 75 81 97 92 97 96 45
15 21 22 27 44 42 32 34 35 41 43 41 42 50 73 67 74 73 73 74 68 63 58 65 84 70 37 35 44 45 37 30 24 21 17 15 65 80 84 88 97 95 43 56
21 23 24 32 32 31 52 49 48 49 48 52 51 59 79 72 71 76 75 69 64 62 58 78 67 38 39 61 64 61 49 38 28 28 15 32 62 75 95 87 95 87 79 73
25 24 27 30 33 68 56 53 49 52 56 55 60 72 68 66 74 80 74 73 63 60 67 54 38 68 78 81 68 51 43 29 36 14 9 28 49 64 70 76 95 87 80 86
28 29 32 36 36 28 39 58 49 53 52 54 56 57 69 84 88 89 84 70 65 68 36 38 67 76 70 50 42 47 34 43 26 15 20 36 50 46 50 89 87 85 81 74
33 36 36 45 49 70 62 69 68 70 61 52 58 75 82 81 79 79 71 59 34 12 19 48 67 72 64 58 59 39 46 22 25 28 40 47 49 58 69 91 77 88 82 77
39 45 45 55 61 38 37 49 46 71 53 63 68 76 81 84 87 80 66 33 24 37 65 83 88 75 66 65 48 46 18 39 30 35 44 49 58 66 78 76 94 96 98 37
39 37 44 71 94 69 50 62 71 70 71 74 79 81 78 91 95 85 55 33 39 84 89 91 84 72 54 47 51 21 24 28 29 34 41 49 63 71 76 92 100 100 64 29
60 42 50 54 42 48 65 85 80 68 74 86 84 80 75 88 96 83 56 64 86 84 85 69 43 38 45 53 29 24 26 29 40 40 52 57 63 69 84 100 96 52 26 25
49 61 73 75 73 79 81 76 80 83 83 87 80 80 90 94 91 78 81 75 63 59 34 37 32 22 20 19 20 27 27 29 47 53 56 64 64 73 83 57 32 24 23 26
31 40 44 48 59 60 67 66 74 85 91 98 98 98 99 98 97 77 59 46 34 28 22 16 16 16 17 21 26 27 28 40 51 64 65 69 76 63 33 22 28 27 22 24
29 41 56 56 63 58 66 82 92 92 97 91 82 93 100 81 46 32 32 26 22 14 13 14 16 17 20 23 23 26 34 48 55 72 74 80 63 31 22 25 33 33 29 31

GFSCGP_700_rhum_006.txt.gz
RH
16 24 24 18 20 20 20 21 18 22 23 23 23 23 25 27 27 28 29 29 28 26 40 53 58 66 65 68 70 76 83 85 71 65 68 77 74 79 82 83 87 97 96 90
28 28 28 24 21 15 24 24 24 24 23 21 30 32 31 30 30 30 29 30 30 32 46 51 55 58 63 68 76 79 74 72 85 89 87 83 81 84 99 100 98 83 70 77
25 22 22 30 28 16 24 25 26 29 27 28 31 42 37 44 37 33 34 35 39 41 50 56 52 55 59 60 66 63 62 66 68 68 69 73 91 95 81 69 71 71 61 56
28 21 29 32 27 29 28 30 30 28 21 20 28 43 58 58 44 40 36 37 37 44 44 48 44 46 39 54 58 66 67 67 68 68 68 67 66 65 70 66 52 55 48 37
31 37 38 38 34 27 30 28 19 17 22 27 30 39 57 50 50 48 46 45 40 41 30 26 29 36 55 54 57 60 57 55 57 57 40 38 38 38 44 40 41 44 51 58
35 34 29 32 29 40 38 37 38 39 38 41 41 38 54 50 44 48 47 47 47 38 38 39 37 34 47 53 52 47 46 39 34 38 42 46 45 45 48 51 56 66 78 85
41 38 31 35 42 38 36 38 43 54 65 57 42 44 58 54 53 51 51 55 55 48 56 67 59 45 52 52 54 53 55 64 60 65 60 57 60 66 66 90 100 99 92 99
43 47 41 26 45 44 41 38 42 64 72 49 46 58 63 62 59 66 68 61 63 63 69 82 76 60 62 73 72 78 86 97 95 85 87 78 80 100 100 100 98 98 98 89
46 43 30 26 43 43 38 30 38 44 50 50 54 58 57 61 61 68 74 71 67 76 82 79 76 72 66 70 65 89 96 93 79 69 69 72 98 100 100 99 49 50 38 64
44 35 42 51 40 31 26 35 37 38 56 64 53 55 54 57 61 62 61 59 68 79 79 80 71 68 75 83 99 99 90 81 85 80 64 43 54 48 37 20 18 76 93 89
40 22 48 48 47 48 48 46 33 35 42 62 79 52 57 58 63 63 57 60 68 78 82 76 74 76 82 95 89 76 68 70 83 80 32 20 16 14 13 22 33 62 75 96
39 39 48 42 32 36 36 45 38 36 59 49 63 57 62 60 58 57 58 61 70 72 75 76 77 76 78 77 76 79 85 79 64 20 16 16 14 13 22 20 41 57 73 88
32 36 41 54 49 37 51 53 45 43 41 44 49 38 61 63 62 68 67 65 70 72 70 72 78 79 63 52 52 58 66 51 19 18 16 15 14 14 23 35 46 68 86 88
21 25 33 32 33 38 40 40 41 44 47 45 45 42 56 58 56 63 65 70 69 73 78 84 81 62 56 50 52 54 38 20 22 18 16 15 14 10 8 18 55 98 98 88
15 13 21 33 39 42 35 33 39 44 46 47 44 45 48 56 63 64 70 75 78 85 87 87 66 57 52 54 44 17 21 25 28 25 21 16 11 5 8 46 76 98 94 90
10 16 18 22 24 30 27 29 31 36 44 46 46 49 58 65 67 73 77 82 84 84 80 71 58 53 41 12 8 25 31 37 31 23 21 18 9 8 10 16 25 52 91 99
15 19 22 23 31 30 35 35 30 47 51 51 53 53 56 65 74 80 84 84 83 78 76 64 55 31 8 13 25 42 39 30 27 21 12 9 9 12 24 33 44 60 91 77
23 24 24 26 30 54 46 30 39 48 47 48 52 56 63 76 84 84 81 81 82 79 67 60 36 15 18 28 46 59 27 25 18 13 10 12 15 22 34 39 52 96 94 85
26 25 26 27 32 26 41 51 52 52 49 55 57 56 57 63 74 89 91 81 74 76 71 53 21 26 43 56 66 35 28 19 16 16 14 15 22 33 40 51 58 66 74 86
32 28 30 30 34 46 28 36 34 33 39 38 47 56 60 72 90 90 85 84 83 79 54 28 29 41 53 65 51 36 24 24 28 18 18 19 27 42 49 62 67 77 84 93
32 32 31 36 41 28 26 52 53 64 34 49 55 62 73 79 80 72 67 65 83 72 46 24 33 50 78 71 42 29 28 23 22 22 23 32 35 48 58 67 80 80 98 100
32 32 33 46 55 47 29 43 45 37 41 53 61 79 90 91 81 76 79 92 82 63 22 25 50 78 61 37 30 17 17 18 24 24 28 44 51 59 63 66 76 94 95 62
51 32 31 34 29 36 42 50 60 65 68 62 76 94 99 93 94 85 86 84 74 25 28 64 71 28 20 17 17 16 17 19 23 23 39 60 65 65 71 77 75 41 29 35
30 41 52 49 44 52 63 67 86 76 76 83 93 84 88 95 92 92 93 84 41 36 62 29 15 14 14 15 15 15 16 18 22 32 50 74 72 71 76 45 28 25 33 32
31 45 40 43 63 72 70 71 65 60 70 88 98 99 93 82 97 100 86 50 38 37 18 14 13 13 13 14 14 14 14 21 28 40 62 86 80 80 60 31 23 25 32 34
32 35 37 37 43 53 52 52 56 67 87 91 87 91 93 85 97 74 58 30 24 16 14 13 12 13 14 15 15 17 20 28 38 49 74 100 90 90 53 28 21 22 33 39

GFSCGP_700_rhum_012.txt.gz
RH
20 20 20 19 17 17 20 17 19 19 19 21 23 26 26 24 22 21 24 24 25 28 38 42 46 57 59 80 84 90 86 88 89 88 73 69 80 90 93 97 91 92 100 96
20 22 22 23 23 22 21 21 24 25 24 21 23 25 26 24 21 22 23 23 24 25 29 32 42 59 74 78 77 79 84 88 80 65 80 92 90 89 80 72 68 62 56 52
21 26 27 27 26 24 20 27 27 24 26 28 31 34 31 25 24 27 30 36 37 44 52 48 60 61 62 59 59 64 67 60 59 66 67 70 66 59 54 50 48 48 48 47
23 24 28 26 26 27 26 30 29 25 25 35 36 60 58 41 41 47 51 55 60 57 48 48 44 30 30 33 42 47 53 61 66 63 65 66 56 45 44 45 44 46 50 54
26 25 25 24 24 25 29 32 32 30 30 34 36 42 60 71 68 62 67 71 68 54 54 54 35 42 52 45 37 37 49 60 61 56 43 40 39 41 50 55 48 49 55 62
26 26 29 33 33 32 31 33 33 31 32 41 38 40 57 55 43 57 62 60 59 60 58 46 47 61 48 42 47 58 58 52 46 45 47 54 62 68 73 72 70 71 65 50
37 34 32 34 34 31 34 36 44 53 64 66 53 49 40 42 49 56 53 55 61 58 55 54 62 63 56 55 62 66 68 64 66 69 79 83 81 78 76 75 64 44 30 26
40 32 38 35 42 38 37 41 40 57 78 58 52 56 49 44 52 58 56 62 65 63 58 59 65 66 54 63 70 77 80 80 90 90 76 62 60 63 61 46 26 16 14 11
42 44 29 42 45 43 36 33 41 42 52 54 53 54 51 51 57 58 60 63 62 62 62 69 57 55 60 72 80 87 93 100 94 72 60 51 49 33 13 12 14 10 7 6
43 40 26 42 46 45 33 37 32 33 54 64 59 61 49 53 56 60 61 60 62 65 65 58 56 61 68 74 83 93 96 90 90 77 54 29 12 14 15 11 8 6 6 6
44 35 40 47 42 40 38 31 25 27 43 63 81 53 47 51 51 54 58 63 65 65 60 59 63 71 78 82 97 99 98 98 91 61 18 16 16 12 10 8 7 7 6 6
46 29 48 47 46 44 44 37 28 27 38 46 55 36 41 52 58 59 63 64 64 63 59 63 70 82 97 99 98 99 100 96 70 23 18 16 14 11 9 8 7 7 7 8
44 40 46 42 35 33 34 35 36 30 32 41 61 29 29 29 41 57 61 63 63 62 67 73 83 98 99 98 100 99 95 53 22 20 19 15 11 10 9 8 8 8 8 10
44 32 32 25 26 30 33 30 31 42 42 38 34 28 34 42 44 47 52 63 63 68 74 82 90 98 98 96 99 89 33 27 24 20 16 12 11 10 8 8 9 10 11 12
35 32 34 24 24 27 28 25 29 38 35 42 27 30 33 43 47 53 58 62 68 75 83 89 94 96 96 99 94 69 42 26 20 16 14 12 10 10 9 10 11 11 12 17
26 23 20 29 26 27 26 27 27 26 25 29 29 19 26 38 45 49 52 61 73 82 90 96 98 98 98 87 83 53 32 20 17 15 14 12 10 10 11 13 12 12 18 30
12 15 17 22 18 22 23 12 14 15 16 19 22 20 26 29 41 50 56 63 76 86 93 98 98 86 73 76 65 43 22 17 16 17 13 11 12 12 14 14 13 16 32 43
14 13 17 22 26 42 12 12 13 14 17 16 19 22 26 34 46 54 60 69 81 90 95 97 80 76 78 72 51 22 18 20 22 15 12 12 14 14 14 13 20 30 48 55
28 26 22 23 28 21 15 13 13 14 17 16 24 30 30 31 42 32 43 69 90 97 93 86 89 86 80 62 24 18 24 26 15 13 13 14 14 14 15 18 30 40 57 66
31 26 28 26 30 40 16 14 14 16 26 17 22 34 30 32 31 30 63 73 83 90 87 96 95 88 81 34 19 26 26 16 13 13 13 14 15 16 18 27 38 57 65 74
21 21 28 31 33 26 21 20 18 34 18 26 26 28 36 38 43 46 58 87 98 90 96 97 99 95 58 22 24 23 16 14 13 12 14 16 18 19 28 39 55 74 77 64
27 26 25 30 40 35 19 22 28 24 29 34 39 41 50 54 58 59 86 99 100 99 96 98 100 82 33 22 24 17 14 14 12 13 16 19 21 28 38 55 79 86 80 45
35 28 28 28 23 24 28 33 36 38 46 47 58 64 71 70 69 77 81 89 93 98 98 97 96 47 30 35 19 14 14 12 13 17 20 22 24 40 49 74 93 94 87 46
25 27 30 30 27 28 32 37 42 53 52 55 76 82 85 81 76 84 99 100 100 95 96 94 37 27 33 20 14 15 12 12 16 20 23 26 35 44 62 84 100 99 82 36
37 35 33 35 31 36 40 40 42 45 45 46 58 84 85 73 83 95 99 95 96 96 86 37 26 29 19 14 14 12 12 14 21 26 28 32 46 48 69 83 100 98 72 33
34 38 41 42 45 52 50 50 48 50 52 59 64 68 73 85 90 99 98 98 97 84 55 41 30 18 15 14 11 13 17 24 29 30 32 36 54 55 71 85 99 92 44 26

GFSCGP_700_rhum_015.txt.gz
RH
25 21 19 19 19 16 15 14 19 20 22 24 25 25 27 26 20 23 22 22 27 32 42 44 49 54 56 61 74 89 92 89 85 94 80 69 68 73 68 72 66 57 51 52
24 20 18 19 19 20 21 21 22 23 19 20 20 22 24 26 25 22 22 24 28 34 43 45 50 52 58 70 84 80 74 78 72 62 58 63 62 58 56 53 51 50 49 49
23 23 24 26 25 22 21 22 25 26 26 23 23 26 25 24 25 22 22 24 27 30 36 48 49 55 56 48 41 35 41 49 56 63 64 61 60 52 46 42 40 41 44 40
22 26 28 31 28 27 25 27 27 24 27 36 30 32 28 26 25 24 26 34 44 51 52 49 46 36 36 44 41 36 36 37 46 51 59 52 47 49 50 50 51 54 49 43
25 25 23 26 26 23 27 32 30 29 31 29 33 38 36 36 35 33 43 53 59 53 44 44 50 48 44 51 53 45 46 52 49 46 50 52 54 58 56 52 51 49 43 33
24 29 26 28 31 30 29 34 32 32 33 40 34 38 38 35 28 42 58 67 66 53 54 58 45 51 57 60 50 52 59 63 69 69 72 69 68 68 58 55 51 36 18 16
31 32 30 30 34 33 34 39 45 49 56 46 43 46 35 34 35 48 57 64 64 61 59 49 49 59 67 61 56 62 66 73 83 86 90 91 79 68 57 40 18 15 15 11
34 31 26 27 34 31 31 38 36 57 60 50 53 59 42 40 38 58 64 60 59 60 58 57 59 67 56 56 61 66 75 82 93 96 97 91 86 75 42 19 18 14 10 7
37 38 34 33 43 40 39 40 40 42 50 51 47 49 41 43 43 55 64 60 61 61 62 61 65 60 56 58 68 81 87 95 99 95 96 92 77 37 22 20 13 10 8 6
39 43 33 33 47 48 42 34 40 36 52 50 46 50 36 33 36 50 59 58 58 60 61 66 65 58 58 67 77 86 96 100 99 99 97 80 31 23 20 14 10 8 6 6
42 42 44 39 45 42 41 39 27 28 36 41 49 32 22 26 41 42 45 51 54 60 65 67 63 59 65 77 90 90 100 98 97 98 80 35 26 21 16 11 9 7 6 7
43 41 35 44 43 41 40 38 26 25 33 40 46 28 21 22 29 49 55 57 61 65 67 66 63 64 74 89 95 100 98 92 99 90 39 26 23 16 12 10 8 7 7 8
46 44 42 47 44 45 41 38 29 28 28 34 56 21 21 25 30 41 57 62 66 68 65 64 63 71 87 100 100 97 92 98 74 39 28 23 17 13 11 10 8 8 9 9
43 43 37 34 26 28 35 27 27 34 29 25 22 16 19 29 33 38 48 53 59 61 64 66 73 86 99 99 99 98 96 69 46 33 23 17 14 12 11 10 9 9 10 10
32 43 37 33 25 24 29 29 30 28 25 28 15 16 14 22 30 40 49 54 56 60 66 72 84 97 99 100 98 84 74 63 38 23 17 16 14 12 11 10 10 11 12 15
27 29 30 30 30 26 22 21 22 23 25 24 20 13 14 21 27 35 42 50 56 62 72 84 93 97 99 94 82 80 74 55 27 17 17 15 14 12 11 11 12 14 15 22
22 25 24 22 20 27 28 11 11 12 13 15 17 12 17 18 26 28 38 52 63 70 83 91 97 98 98 94 88 92 73 33 17 18 16 15 14 12 11 12 15 16 20 29
17 13 17 21 24 45 14 12 11 12 12 11 11 12 19 22 27 23 32 40 41 60 80 93 94 99 99 95 98 82 47 19 17 17 15 15 13 11 11 14 18 20 29 35
37 29 21 21 29 18 14 14 14 15 15 13 12 17 24 32 35 28 29 28 38 67 90 99 100 100 92 98 92 74 28 16 16 15 15 14 12 11 14 18 20 27 37 47
40 42 33 26 28 47 17 16 16 16 21 14 18 22 33 44 33 36 35 40 46 68 85 97 100 100 98 98 92 51 15 17 16 14 15 12 11 14 18 21 24 35 51 69
34 26 27 30 32 25 18 19 22 27 21 26 26 26 32 31 37 43 46 52 66 87 99 95 98 96 97 98 77 17 18 17 14 15 13 10 14 19 22 23 33 44 72 82
39 29 25 26 34 30 22 25 28 32 32 34 36 40 39 51 57 64 67 74 81 86 97 99 95 97 97 79 24 22 18 15 16 12 10 13 19 23 25 30 38 61 84 86
37 32 31 30 26 26 29 32 35 35 39 47 52 62 62 72 80 87 90 84 82 98 100 99 98 97 57 52 45 21 16 16 12 10 16 22 25 27 29 38 45 65 81 88
30 30 30 30 27 30 33 38 42 44 43 48 53 50 56 81 87 92 93 87 98 100 100 100 95 45 60 41 22 16 17 10 10 16 24 28 29 31 33 46 54 68 76 88
37 34 33 35 35 43 48 50 54 55 54 54 57 58 60 71 84 83 81 93 99 96 99 94 74 82 56 32 21 15 10 11 17 25 25 28 35 36 35 53 60 72 77 82
34 38 43 48 53 66 61 60 62 66 65 63 62 60 61 64 74 91 99 100 96 98 93 96 93 74 48 32 12 10 12 18 29 28 27 29 38 41 38 56 67 71 75 42

GFSCGP_700_rhum_021.txt.gz
RH
32 36 32 25 26 21 19 17 12 16 23 18 16 24 28 30 43 52 54 62 71 79 76 60 64 62 66 68 72 72 76 79 89 92 88 80 65 66 61 52 44 38 42 46
34 31 31 24 23 19 17 16 19 22 20 23 20 22 29 33 39 46 50 57 65 78 44 49 55 62 68 70 70 71 79 84 78 69 53 58 66 58 52 40 44 52 56 57
36 36 22 27 22 20 20 17 25 22 27 23 24 26 35 34 39 34 56 60 66 75 38 35 47 57 62 62 64 74 74 41 39 37 44 53 51 48 47 50 54 56 63 67
37 31 29 25 25 24 24 26 25 26 28 22 24 20 29 41 25 24 24 52 73 81 79 27 35 40 53 54 54 45 50 45 42 46 46 46 72 98 62 70 67 76 75 74
33 33 27 27 31 24 45 28 31 26 24 28 26 21 33 43 43 28 25 25 41 36 31 38 42 56 47 43 47 52 49 49 57 60 62 64 66 70 74 78 82 84 85 62
36 36 34 33 22 23 21 34 34 27 20 25 19 24 29 38 36 47 52 33 45 40 38 51 53 47 44 50 53 50 49 53 57 61 65 68 74 80 87 86 90 92 87 61
34 31 24 26 36 32 30 29 26 27 30 28 26 25 20 19 38 38 67 59 70 48 44 49 48 43 52 49 57 56 54 57 60 63 68 74 77 79 83 98 90 78 53 41
30 34 32 33 32 29 32 26 27 27 27 23 31 22 18 26 25 30 64 81 60 46 50 52 44 54 49 54 58 56 57 59 62 66 66 77 89 94 99 76 62 52 40 28
24 32 35 32 38 31 28 32 31 34 39 34 20 16 24 29 35 44 64 80 83 67 57 52 53 57 53 60 63 60 62 62 63 67 80 96 99 100 89 62 53 42 26 19
30 30 36 38 33 31 34 36 32 27 32 32 16 17 14 38 38 51 62 75 84 86 78 58 60 57 57 61 66 67 68 64 69 79 86 99 100 99 88 55 42 28 20 18
30 29 40 45 38 28 42 33 33 34 37 33 24 17 25 23 37 44 54 68 78 83 87 74 60 59 61 63 67 72 73 74 80 81 94 100 98 74 61 46 34 23 20 17
32 30 33 37 42 36 41 36 36 35 29 36 46 25 20 11 24 44 50 61 71 81 83 94 64 60 64 66 68 74 76 82 84 87 100 100 80 68 56 41 28 20 18 14
43 31 37 38 44 46 38 34 36 34 36 31 50 25 32 18 13 25 41 56 68 76 82 95 64 57 63 68 69 73 80 85 85 93 100 90 78 70 49 29 20 18 16 12
33 37 36 34 35 36 43 37 36 38 37 31 26 22 24 30 33 33 42 44 59 72 81 95 76 59 63 68 74 75 79 86 86 99 97 87 78 58 34 20 20 17 15 8
40 49 41 40 46 42 37 32 36 34 32 30 27 20 17 19 24 29 35 44 46 65 55 59 56 59 63 68 74 77 80 89 98 100 93 89 71 49 21 21 18 17 12 7
45 49 46 43 50 44 42 36 30 28 29 27 24 24 22 27 28 35 37 29 23 33 32 39 48 58 65 71 74 77 88 98 100 100 96 84 54 22 28 21 17 14 8 8
56 44 41 38 41 44 40 24 30 28 28 30 30 28 26 36 40 41 42 41 23 26 28 40 48 52 60 67 72 83 97 100 100 100 96 81 45 51 31 17 16 8 9 13
43 39 40 43 27 68 21 22 20 21 24 26 28 29 29 34 39 26 25 37 39 29 28 29 29 29 56 72 78 99 100 99 98 97 96 77 43 26 17 16 9 10 14 18
36 28 24 40 36 30 28 22 19 16 18 30 38 32 32 38 20 22 43 40 34 34 35 37 40 42 52 58 94 96 100 100 100 99 86 52 36 38 16 9 10 14 17 19
44 38 40 34 53 84 43 22 16 17 32 43 28 38 35 22 43 41 55 49 42 34 41 57 59 68 69 71 94 100 100 98 97 98 95 94 70 51 10 9 14 17 19 21
52 55 53 63 63 48 40 24 21 34 48 41 26 25 28 42 53 55 53 49 49 58 76 81 86 88 87 90 99 100 99 100 95 95 96 89 54 26 11 14 19 18 20 25
45 42 42 61 58 51 34 30 38 58 34 32 28 33 33 40 46 49 51 56 60 65 83 89 95 97 90 97 98 99 98 96 96 94 92 62 25 11 13 19 19 20 29 32
66 62 62 46 49 51 31 34 38 33 32 34 38 39 47 54 52 53 65 50 56 67 82 90 97 96 100 100 99 96 95 95 94 94 58 33 15 14 22 26 22 26 37 37
52 45 38 36 44 51 55 36 44 49 56 51 56 62 62 64 67 72 84 68 72 74 75 80 94 100 100 99 97 96 94 94 91 60 38 20 15 22 27 28 24 30 38 41
53 51 51 55 38 55 63 74 74 53 62 64 65 69 69 68 76 82 83 85 87 84 90 96 98 100 98 97 97 95 94 91 55 38 31 19 20 30 37 36 30 30 42 45
56 61 51 66 73 48 59 73 53 62 62 65 69 73 72 81 87 92 92 96 100 100 99 100 99 100 97 95 94 90 84 59 49 40 24 23 25 36 39 35 37 35 39 46

GFSCGP_700_rhum_024.txt.gz
RH
38 40 33 31 37 27 26 24 19 16 21 21 20 23 24 32 39 50 62 64 72 81 84 44 50 63 87 98 49 56 70 73 78 87 94 81 86 59 58 63 58 50 39 33
37 34 34 36 32 27 21 21 16 17 19 20 16 17 23 28 37 42 48 58 66 70 80 44 44 58 64 80 62 60 71 76 82 86 63 61 59 50 48 52 44 36 41 49
45 45 40 33 27 23 21 23 23 19 17 14 25 16 23 25 33 38 45 47 55 66 77 60 46 54 65 65 60 63 72 77 76 44 44 44 46 55 48 44 49 58 68 74
49 41 40 29 29 22 29 37 27 25 25 22 26 33 40 40 30 34 41 45 51 59 71 70 44 38 40 44 53 56 56 54 45 43 47 50 53 52 58 66 68 76 76 76
51 33 29 28 29 33 32 28 33 25 22 28 29 40 36 44 34 41 46 46 54 63 71 79 60 30 30 39 56 48 45 44 45 48 50 56 56 63 64 68 73 82 89 69
36 37 43 43 31 33 29 26 30 23 22 47 25 41 38 47 31 51 48 56 64 69 79 90 85 52 38 50 46 47 50 48 46 50 53 56 57 65 65 70 80 83 90 66
32 22 31 33 26 27 23 25 27 56 65 47 22 25 29 31 46 41 37 51 68 76 76 87 69 38 44 46 47 50 54 54 49 53 54 57 60 69 77 83 90 100 80 54
29 42 28 26 27 33 34 22 32 82 88 37 29 25 22 31 38 33 56 64 79 79 82 77 54 50 50 44 51 53 56 53 52 54 54 59 70 75 86 93 97 100 80 50
44 47 53 34 30 30 25 27 28 39 40 37 23 16 15 29 24 24 54 73 76 77 74 77 67 58 47 48 53 51 60 59 57 56 60 70 73 81 93 98 99 60 58 53
42 79 43 39 28 31 19 28 33 27 38 38 21 18 22 35 35 23 50 67 82 88 88 79 75 61 47 52 56 55 61 65 65 67 73 76 81 94 99 98 88 62 57 37
29 42 35 42 36 24 38 35 27 25 30 56 50 24 23 26 29 36 44 60 73 82 82 75 73 68 58 60 59 59 62 64 66 73 78 83 89 96 98 99 79 63 45 36
30 31 28 31 32 35 35 38 31 35 34 35 40 36 24 18 10 19 40 48 64 71 75 82 81 75 64 64 61 61 65 67 69 73 83 92 99 99 99 93 74 59 42 33
38 35 29 30 35 39 36 31 28 35 37 41 57 34 29 24 20 23 35 46 57 66 77 82 86 82 58 63 61 60 65 69 72 79 90 100 100 100 98 90 67 40 27 31
37 40 30 36 32 40 40 38 30 30 39 41 33 26 24 25 30 30 32 34 48 56 68 77 81 86 82 73 68 68 70 71 74 87 100 100 100 99 94 69 48 27 31 20
37 44 38 35 33 40 42 35 31 30 31 35 34 30 23 20 22 24 27 34 39 42 57 67 75 84 97 93 79 76 74 72 77 97 100 100 99 100 94 73 80 85 25 17
41 53 50 47 47 45 43 40 36 30 26 27 26 25 23 24 27 26 32 35 38 47 44 56 70 85 93 90 88 75 74 72 88 100 100 100 100 92 81 96 62 22 54 20
63 51 50 48 43 39 33 25 22 30 30 27 26 27 28 29 28 37 39 42 45 38 38 44 68 62 56 72 82 78 79 87 98 99 100 98 95 98 93 87 36 83 40 18
58 47 55 44 39 56 22 29 25 27 27 25 23 25 27 28 32 35 31 33 34 56 43 31 30 34 39 53 88 92 92 81 99 100 98 99 98 96 95 82 92 52 47 16
51 47 42 46 44 31 29 29 28 29 23 31 35 34 33 38 31 30 45 52 50 46 44 44 36 47 53 57 84 79 92 100 100 99 100 98 94 96 97 96 86 50 29 18
44 46 42 33 59 77 45 35 24 17 29 45 34 37 30 26 38 45 49 57 55 59 51 70 75 81 85 93 94 89 95 96 100 99 97 96 96 95 93 84 61 46 24 20
52 46 41 56 52 49 44 42 30 31 53 53 43 30 27 29 53 56 48 43 51 54 69 66 94 91 86 88 89 92 97 96 96 97 96 96 94 91 89 70 50 32 23 21
38 45 48 68 82 64 45 37 36 64 56 38 30 30 32 37 34 40 53 86 50 56 73 75 65 68 67 75 92 97 99 98 97 98 96 94 94 88 69 49 26 25 28 24
58 59 67 54 54 55 46 33 39 44 33 32 35 44 50 51 63 65 72 89 66 77 68 67 71 80 90 95 100 99 97 95 96 94 94 91 86 70 48 23 20 27 32 27
63 60 53 53 41 49 52 55 60 69 63 48 53 60 72 62 62 74 92 99 80 72 83 97 100 100 100 97 100 98 96 95 94 91 79 71 55 38 21 20 24 23 28 33
63 64 52 58 52 55 57 68 73 61 62 56 61 71 63 65 73 76 74 74 91 94 97 99 98 99 100 98 96 96 95 93 83 55 51 44 27 24 23 21 22 26 28 34
58 61 61 54 72 49 62 59 48 50 55 55 62 65 72 75 76 80 84 93 95 98 100 89 99 98 92 94 95 88 65 44 46 43 27 24 27 29 28 28 30 32 31 31

GFSCGP_700_rhum_027.txt.gz
RH
43 36 40 37 37 33 30 29 25 24 22 26 33 26 28 36 53 57 59 64 45 39 30 41 51 67 49 34 46 45 58 72 71 69 74 79 73 65 44 48 49 61 59 48
45 42 38 34 38 35 34 29 27 22 22 21 22 25 25 27 46 53 52 50 55 52 50 41 54 73 44 46 47 60 63 65 75 68 74 76 53 44 44 48 45 42 39 48
46 42 35 38 34 34 34 30 31 22 14 20 20 21 24 27 33 44 50 50 62 58 53 45 49 57 51 46 46 61 64 64 74 73 69 47 42 46 45 47 54 58 63 69
42 36 32 39 36 31 27 30 30 27 27 20 18 34 28 30 32 37 41 45 54 56 60 63 55 65 51 39 41 57 62 64 65 58 48 43 45 47 49 49 56 64 69 74
44 36 39 41 34 32 31 29 28 25 29 32 30 28 31 28 33 31 36 45 47 53 55 57 63 60 69 53 36 40 51 57 53 46 47 44 50 50 54 58 66 72 78 90
37 37 40 39 28 27 33 24 24 31 35 46 24 25 35 34 30 36 36 39 46 56 58 63 65 70 72 44 37 44 48 51 49 51 48 49 52 51 58 66 73 80 90 98
37 31 36 30 27 34 34 29 37 48 64 70 42 35 30 31 33 34 22 29 37 51 66 68 70 74 71 39 42 46 48 49 52 54 50 52 51 58 65 73 82 92 100 95
33 35 42 39 36 32 29 28 42 72 83 62 40 42 32 23 33 39 38 43 43 59 62 68 68 68 63 46 55 47 48 52 55 57 53 54 57 63 70 77 90 97 94 93
36 42 39 38 37 38 27 31 32 38 56 64 40 22 36 36 41 35 42 49 52 56 52 54 56 54 50 56 56 48 50 53 55 62 63 62 65 70 76 85 98 99 94 99
28 33 33 42 41 33 28 24 35 30 51 53 28 29 40 37 35 36 47 59 62 58 58 60 56 48 48 57 56 48 51 55 55 61 66 76 80 84 90 97 99 95 98 96
35 35 38 41 43 34 32 34 29 29 28 64 74 33 26 22 28 37 61 63 57 58 58 52 40 37 36 42 57 52 56 60 59 62 68 76 83 92 99 99 99 99 99 96
34 34 48 46 34 35 33 37 41 28 32 36 39 36 29 24 16 19 20 43 61 63 63 65 63 52 44 38 37 51 62 68 67 67 73 83 91 98 100 100 99 100 99 71
35 35 32 29 27 38 35 34 28 29 38 37 50 35 31 27 28 26 25 24 41 60 64 65 70 61 51 54 57 68 71 82 80 78 82 93 100 100 99 98 98 97 93 75
32 41 36 30 26 32 41 41 38 34 33 38 38 36 28 24 27 30 30 32 32 32 54 59 67 73 78 74 78 85 78 62 71 82 82 100 100 100 99 98 98 97 94 93
27 27 39 33 33 38 41 43 43 38 32 32 31 33 29 30 27 27 31 36 37 38 47 64 67 68 72 78 86 84 75 67 74 75 73 98 99 99 98 96 94 92 90 83
35 35 38 43 36 41 42 43 40 39 33 30 28 32 30 27 29 28 30 32 35 42 39 32 59 73 74 68 73 74 67 73 77 68 92 100 98 98 98 99 97 96 92 74
37 38 42 48 43 41 35 24 26 24 24 33 31 28 27 27 30 32 36 36 34 29 29 33 40 39 58 66 63 56 56 73 95 100 100 98 98 98 98 98 96 96 93 94
41 50 55 48 44 43 30 30 30 32 29 27 26 27 28 31 32 34 33 29 26 30 36 39 43 38 47 40 37 53 92 100 100 100 100 100 100 98 100 99 96 93 94 93
58 54 53 50 40 36 29 30 31 24 30 31 28 29 31 31 30 24 26 29 35 47 55 53 50 44 43 60 76 84 100 98 98 100 100 99 99 100 97 96 94 94 90 84
52 54 51 45 42 65 43 39 31 22 36 34 32 31 30 30 27 28 34 43 53 54 60 59 51 44 49 58 62 66 71 78 91 100 100 99 99 98 96 94 92 83 70 54
53 60 59 47 36 40 44 43 37 32 44 48 46 45 37 30 30 36 50 65 52 40 44 52 56 60 71 84 89 95 97 99 99 99 100 97 96 95 94 88 79 67 47 20
41 46 50 51 65 59 46 46 42 43 46 49 49 36 32 31 32 36 48 60 62 54 52 56 75 92 98 98 98 98 98 99 99 98 96 96 95 94 80 52 53 29 20 24
49 40 38 40 45 40 47 41 47 47 40 37 37 36 36 40 50 62 64 62 59 59 64 90 100 99 99 99 98 99 99 98 95 93 91 92 75 42 49 46 24 22 21 25
57 61 66 62 59 55 53 52 54 56 46 42 43 44 50 55 61 66 66 68 73 91 100 100 100 100 97 92 87 91 94 89 88 94 81 38 41 48 34 25 26 23 22 23
53 59 58 53 48 49 54 56 55 55 56 57 66 54 54 57 65 70 72 77 91 100 100 100 100 97 66 68 77 76 81 85 73 42 41 43 34 22 24 28 27 27 29 32
48 58 54 53 50 48 51 51 51 60 65 62 54 53 55 62 68 70 76 83 86 97 100 100 99 66 65 70 76 73 60 48 34 29 23 19 20 24 28 30 30 38 34 34

GFSCGP_700_rhum_030.txt.gz
RH
43 40 40 37 37 38 34 34 35 29 27 30 32 32 30 46 58 67 62 62 64 48 50 41 39 43 46 50 47 51 55 63 60 62 64 64 65 71 47 42 37 38 38 38
41 42 39 40 41 37 35 37 35 27 23 25 28 32 33 37 55 58 58 56 46 46 49 42 33 29 30 37 48 53 57 58 60 64 70 65 66 66 43 39 40 44 44 41
36 41 39 39 37 40 37 36 36 31 21 26 20 32 33 39 53 58 57 52 52 46 48 56 51 46 39 36 44 61 66 69 70 72 71 67 61 45 41 42 45 52 59 62
37 38 38 36 37 39 37 27 30 31 21 21 18 37 30 30 36 48 52 53 55 48 46 60 62 60 54 56 66 64 68 66 64 64 63 62 47 44 45 46 54 62 68 72
41 40 37 36 36 38 34 35 31 30 30 32 31 28 27 28 32 36 38 46 52 52 45 50 52 54 59 69 75 66 57 56 55 54 56 48 48 47 49 52 59 66 72 78
39 39 38 35 33 33 35 32 32 28 32 47 40 37 30 27 28 28 28 33 41 51 56 61 64 67 70 78 80 73 67 43 50 56 50 53 51 52 53 59 64 71 77 87
36 38 31 36 34 31 34 30 32 42 62 58 39 40 30 28 29 28 30 32 39 50 59 61 71 72 78 74 75 69 59 44 55 52 55 56 53 56 62 72 84 89 90 100
37 40 35 33 39 37 35 29 34 53 70 51 40 41 30 24 23 28 32 31 34 38 47 55 66 75 74 68 59 59 58 50 50 55 59 59 57 70 83 81 86 98 99 100
33 38 35 30 38 39 36 33 37 34 55 62 42 31 31 32 25 30 32 36 35 41 45 43 54 64 65 64 62 62 60 53 50 60 70 72 70 75 90 97 99 99 99 98
26 33 33 33 33 36 39 33 33 37 56 58 34 33 37 36 28 22 34 40 46 44 42 52 58 58 53 49 57 59 60 56 52 63 70 71 73 81 95 98 99 99 99 90
27 27 33 34 37 32 32 29 32 30 34 58 69 34 33 33 19 17 18 22 34 41 48 54 52 33 24 32 41 48 55 61 59 62 70 72 80 93 99 99 99 94 99 99
32 32 33 33 32 34 41 36 38 42 33 35 40 35 31 28 24 21 23 31 29 50 57 45 31 31 40 42 44 41 52 63 75 77 70 74 88 94 97 100 99 88 91 100
32 36 39 39 40 38 42 38 34 35 33 34 48 37 29 30 34 30 27 27 27 25 25 28 48 56 57 59 61 59 55 65 80 79 76 75 94 99 97 95 90 95 92 87
34 34 34 34 31 28 38 39 41 41 40 35 37 35 33 31 29 30 32 31 32 34 43 53 62 65 69 70 76 79 79 81 76 76 71 78 100 99 96 92 97 91 91 88
36 35 38 36 31 31 38 45 43 44 40 38 34 31 31 29 32 28 30 33 36 38 42 48 58 70 72 79 82 84 84 84 83 75 82 92 100 100 99 100 100 99 94 90
37 32 30 40 38 32 33 41 44 41 41 41 35 30 29 33 32 30 30 32 38 38 42 45 54 44 57 82 85 85 80 82 70 85 99 100 100 99 99 99 99 100 100 100
36 32 36 38 36 39 41 28 30 31 36 30 37 36 32 32 35 35 36 37 38 37 33 27 24 26 28 44 61 65 59 58 73 94 95 98 99 98 100 100 100 100 99 96
41 36 39 47 46 54 32 30 28 28 32 32 30 35 35 33 35 36 33 29 26 26 29 33 36 40 42 41 43 39 45 66 75 92 97 99 100 96 99 100 99 97 95 93
57 52 55 51 47 39 29 33 29 27 36 37 34 32 32 33 33 28 27 30 32 36 35 42 50 46 43 48 48 55 65 69 73 84 100 100 100 100 100 100 96 94 95 95
54 55 60 57 45 58 30 28 32 32 31 34 38 37 36 33 30 31 32 31 33 35 42 51 52 52 61 64 69 86 91 87 85 93 98 99 98 97 96 93 97 96 90 50
65 70 68 58 46 34 33 40 40 31 31 29 30 35 40 41 35 32 31 30 30 34 43 51 59 67 70 85 93 95 98 100 99 99 99 100 99 96 97 96 89 47 47 40
42 48 61 66 52 52 38 37 45 40 38 37 36 36 36 34 34 33 38 48 54 59 65 68 72 82 97 99 96 100 100 100 100 100 98 97 97 91 86 67 42 42 28 18
48 41 37 42 42 43 44 49 45 40 39 38 38 38 42 35 37 45 51 58 65 70 75 75 88 98 99 100 100 100 100 100 100 100 95 86 84 90 69 37 28 20 20 21
51 48 47 44 46 55 55 52 48 47 45 44 47 45 46 44 45 46 56 66 68 68 72 97 99 100 100 100 100 90 67 72 75 74 81 90 76 37 25 20 18 20 23 24
41 47 56 59 58 57 58 55 54 53 54 54 51 56 58 55 49 52 58 64 71 79 100 100 100 100 99 100 86 66 68 69 72 71 51 31 20 18 18 20 24 26 28 29
30 44 49 45 53 55 50 50 53 56 59 64 69 72 60 52 55 62 68 73 84 94 100 100 100 100 98 76 68 62 55 45 29 21 20 20 21 24 25 25 25 30 30 31

GFSCGP_700_rhum_033.txt.gz
RH
44 41 42 38 38 39 37 34 32 30 28 30 32 39 45 49 61 60 46 33 28 28 32 38 40 40 39 41 46 51 55 62 65 67 69 70 73 75 77 68 48 39 38 40
39 40 39 37 38 36 37 36 30 31 29 26 28 37 42 39 46 55 45 44 41 40 35 33 31 38 38 40 42 45 48 56 61 68 74 79 78 68 67 52 43 40 41 43
35 35 38 37 37 38 38 39 31 33 33 25 26 35 38 40 47 62 63 57 51 51 46 45 51 44 38 37 38 47 52 62 67 72 76 73 61 64 52 44 43 44 45 53
40 37 37 40 38 38 38 38 33 30 31 24 25 30 33 36 36 58 63 60 57 51 54 57 53 53 54 59 62 67 66 70 70 71 71 67 67 62 48 46 48 48 56 63
37 43 37 38 36 36 36 38 36 33 33 32 34 32 28 32 33 30 38 51 55 57 46 54 51 54 63 72 75 84 83 74 70 63 65 71 66 59 52 50 49 52 62 67
39 43 38 36 35 34 34 37 33 30 30 46 40 39 32 30 27 26 28 33 48 58 57 50 49 52 56 75 84 74 74 75 77 72 67 67 65 53 52 52 54 60 68 75
36 40 42 38 37 32 34 37 31 39 58 56 37 39 30 27 30 29 30 30 35 51 55 44 48 53 58 66 77 83 80 72 64 57 53 55 55 56 53 55 59 66 75 82
39 37 35 35 37 34 34 34 34 49 65 45 42 45 29 27 26 24 27 34 34 35 39 49 50 56 68 68 80 78 75 71 69 65 52 52 62 68 71 72 79 89 96 100
37 35 33 33 32 34 33 34 35 39 57 58 40 38 23 21 26 25 27 32 32 34 37 41 47 57 71 80 88 81 71 82 66 58 54 54 65 69 70 86 99 100 99 100
28 27 26 31 34 39 37 33 34 37 50 58 42 33 30 35 29 19 17 34 31 38 39 38 44 55 65 88 83 67 79 61 49 54 58 57 67 74 83 82 93 98 99 99
28 27 28 31 27 26 29 36 36 32 35 61 67 37 29 36 26 21 23 20 17 20 35 39 40 51 50 34 27 27 24 21 27 36 46 51 68 80 90 94 99 100 100 100
30 28 29 28 30 37 42 36 40 34 37 38 42 35 30 28 30 24 24 27 25 19 20 26 34 50 41 37 40 48 49 58 61 69 75 80 81 90 99 100 100 100 100 100
25 31 36 34 31 34 37 38 41 42 42 35 49 34 35 33 28 32 29 28 29 24 26 25 28 49 56 62 64 69 65 69 76 77 83 83 84 97 100 100 100 99 95 98
25 30 33 34 31 34 37 36 42 40 40 39 36 32 32 31 30 32 27 28 31 31 30 33 43 54 59 59 65 54 65 68 73 76 80 86 84 100 100 100 100 100 100 100
32 34 34 33 33 32 29 32 38 47 42 44 42 38 34 32 33 33 30 29 33 33 36 39 51 56 59 63 61 60 68 69 75 82 92 82 97 89 96 96 95 99 99 99
33 38 38 38 38 36 33 30 28 46 46 45 43 41 32 31 32 32 30 29 31 35 37 37 41 44 47 48 52 60 70 80 79 90 82 78 98 100 100 100 98 99 100 99
39 37 36 34 34 40 40 32 31 28 32 42 41 40 35 37 30 31 31 31 35 39 40 41 34 29 32 39 46 41 54 59 62 82 98 98 99 99 99 99 99 99 99 99
37 39 34 37 36 61 33 37 32 26 25 24 24 26 28 36 35 36 36 38 39 36 28 28 32 41 46 49 50 42 48 48 60 68 76 89 100 100 100 100 100 98 97 96
46 44 42 46 46 39 40 34 32 32 33 32 32 31 37 39 38 37 33 29 29 30 30 36 43 47 48 43 44 51 55 62 79 88 91 100 100 99 99 98 98 98 97 96
55 51 54 56 52 61 44 41 40 32 33 34 36 35 34 34 35 32 33 34 32 32 33 35 40 48 51 54 54 53 58 75 91 97 99 99 99 99 98 99 97 96 96 97
62 59 62 60 59 53 46 38 34 38 33 32 33 39 40 39 39 39 35 34 32 35 42 51 56 57 56 56 58 66 81 95 99 99 100 100 99 99 98 97 97 95 80 54
48 53 67 70 66 59 47 38 41 34 34 33 36 34 40 48 40 38 34 33 41 44 48 52 56 57 62 66 77 97 99 99 98 99 98 98 98 99 97 92 89 79 49 28
43 34 35 41 44 39 38 39 40 39 39 37 36 38 46 41 40 34 33 37 40 45 52 60 68 82 93 98 98 98 97 99 98 90 79 82 82 79 81 75 51 29 20 18
42 35 43 38 36 34 34 32 33 36 36 37 39 42 47 43 37 42 45 44 47 56 69 80 88 99 99 100 98 99 99 100 82 68 69 68 59 45 31 22 18 18 20 23
35 32 39 37 33 37 40 40 42 38 39 44 48 52 52 52 55 62 53 52 59 72 79 84 99 99 100 100 100 96 80 70 65 50 36 26 22 21 21 22 22 23 23 24
27 20 26 17 18 32 40 46 48 49 52 54 57 59 62 67 75 62 56 63 70 72 81 97 100 100 97 85 80 72 61 42 29 26 25 24 24 23 23 22 21 24 24 25

GFSCGP_700_rhum_036.txt.gz
RH
44 42 37 32 39 35 37 37 34 31 32 35 31 31 40 46 48 47 29 23 24 25 27 23 24 34 42 48 50 55 58 61 60 62 65 68 74 70 68 75 68 63 72 54
43 41 39 38 38 37 35 35 32 29 33 27 27 28 37 41 36 36 41 32 30 28 31 34 35 36 37 41 47 49 50 53 58 68 71 73 74 77 75 70 74 80 60 46
42 37 38 36 38 37 37 39 35 33 34 31 28 32 37 38 46 44 50 48 44 47 41 40 43 40 38 43 35 40 48 54 60 65 64 65 66 69 66 76 87 72 49 46
40 38 39 39 38 38 39 39 40 33 35 28 31 29 29 33 38 41 34 45 51 48 52 50 51 41 48 55 54 60 59 59 63 66 65 64 72 78 75 83 67 49 48 49
38 41 40 37 35 38 37 37 37 32 32 34 34 33 27 31 41 34 33 30 37 44 50 52 50 53 58 64 68 70 72 77 61 63 69 72 81 77 79 79 63 48 50 52
36 42 43 38 38 36 36 35 38 36 33 47 35 39 32 29 27 26 28 27 30 37 45 47 51 58 54 58 64 73 70 84 72 81 83 79 72 75 79 76 69 52 55 59
34 40 44 42 39 37 34 36 36 38 58 58 37 42 30 26 27 31 31 29 29 32 36 46 50 50 58 57 61 70 84 90 85 87 82 76 72 81 76 70 69 63 64 69
36 38 39 39 37 34 35 35 34 43 65 43 42 39 26 31 32 28 26 26 30 33 34 40 49 47 56 60 63 69 84 78 86 88 80 76 69 68 69 68 68 77 77 79
38 36 34 34 38 37 34 33 35 38 56 62 38 35 27 26 36 31 30 32 32 33 37 40 45 42 48 62 62 71 85 98 88 78 81 73 66 65 66 69 78 77 81 86
34 33 30 28 35 39 40 36 36 41 49 53 44 35 26 19 20 19 17 22 35 38 38 41 44 40 46 66 76 75 77 84 76 68 60 57 57 62 65 56 61 76 82 89
30 32 30 27 28 26 31 41 40 36 36 57 64 36 28 25 24 25 23 22 18 17 28 37 40 38 20 16 22 45 46 42 40 36 39 48 52 62 77 83 85 87 95 97
26 28 29 27 28 28 32 39 38 37 40 40 45 38 32 30 29 29 28 26 28 22 20 17 16 20 36 35 47 57 57 58 61 65 68 69 74 86 84 93 98 100 100 100
26 29 32 33 32 34 36 40 40 40 43 44 53 39 34 34 31 31 31 28 27 29 23 24 24 27 37 54 63 74 72 69 60 59 67 79 86 90 97 97 93 97 86 100
25 29 30 34 30 30 36 35 35 40 44 41 41 39 39 36 35 31 31 31 27 30 29 26 27 29 41 60 69 65 62 57 60 62 72 86 92 96 100 98 100 100 100 96
26 29 28 29 32 31 30 31 32 32 36 42 41 44 41 40 34 31 34 33 30 30 32 31 32 34 48 57 56 56 53 55 61 78 86 82 90 100 100 99 94 93 99 96
27 32 34 33 34 34 33 33 31 29 27 30 46 45 36 43 33 32 32 33 29 29 32 35 37 38 42 51 49 55 45 40 58 77 86 71 83 96 90 87 98 99 82 87
28 32 39 39 39 39 42 34 32 33 34 34 38 35 41 42 39 35 35 32 30 31 36 40 41 42 40 28 30 36 39 43 41 41 45 48 69 82 94 96 97 93 98 98
27 33 41 38 40 58 34 32 29 25 26 29 27 25 22 34 30 31 34 34 36 39 40 38 31 28 28 30 36 41 40 39 43 53 63 74 88 97 99 97 98 98 99 98
36 38 40 39 40 38 37 33 31 32 37 31 29 27 30 30 37 41 41 40 38 34 31 30 30 30 31 35 38 44 51 55 57 66 82 95 96 98 100 99 99 99 98 97
42 41 39 44 47 64 42 41 39 40 42 37 30 33 33 35 43 40 36 33 35 35 33 31 30 33 41 51 56 57 55 56 62 77 92 97 97 97 88 100 100 98 96 97
46 48 46 46 55 50 46 45 38 39 29 29 30 31 34 37 37 36 39 40 36 33 30 32 41 49 53 56 54 51 52 61 73 84 93 92 100 99 98 98 97 95 93 79
45 52 60 64 65 65 45 46 44 37 35 33 33 33 35 38 40 46 44 37 33 29 30 35 39 45 49 54 58 63 74 89 95 100 100 97 95 84 71 73 70 59 38 22
52 44 48 51 48 45 31 26 30 43 41 37 38 38 39 43 49 43 39 33 31 35 38 40 44 49 57 69 72 90 98 100 97 96 88 78 65 65 58 38 24 20 20 20
46 44 50 47 41 31 28 31 29 31 42 43 41 36 38 43 43 42 36 34 39 43 45 48 53 62 76 86 98 100 100 98 81 71 67 62 43 27 24 23 22 21 21 21
43 43 43 40 39 32 23 24 28 29 31 36 35 35 41 47 49 47 46 49 51 50 53 60 66 74 95 100 100 100 81 70 65 55 39 30 27 25 23 22 21 21 23 25
46 44 42 40 35 23 24 26 30 35 38 36 38 44 51 55 57 59 61 67 59 57 67 76 82 98 100 100 89 75 66 56 42 32 29 27 24 24 24 24 25 30 31 30

GFSCGP_700_rhum_039.txt.gz
RH
40 37 29 26 38 37 34 33 32 34 35 35 34 33 32 40 46 29 30 56 34 31 18 24 30 36 44 49 50 55 57 60 65 65 65 69 71 71 75 79 78 82 73 54
41 42 41 37 39 37 37 38 35 32 35 32 28 28 32 36 39 33 27 25 26 24 18 26 35 40 44 48 52 54 57 58 64 69 73 74 75 75 74 77 78 84 82 62
39 39 40 41 40 38 36 38 40 37 33 32 28 27 28 29 34 41 38 31 32 30 32 32 33 35 38 39 41 46 49 55 60 70 71 73 72 76 76 79 89 94 78 60
40 36 38 41 42 39 36 38 39 38 34 30 30 29 26 26 32 35 36 43 43 44 38 40 42 42 51 45 40 44 49 51 56 66 69 70 77 81 85 89 92 84 63 52
38 39 40 38 39 39 37 37 38 36 35 36 34 32 25 23 23 23 28 31 38 49 50 47 46 45 52 54 61 62 57 60 65 71 76 79 77 84 88 92 84 78 81 62
42 39 40 42 38 40 39 38 38 36 36 41 35 35 30 27 25 25 27 29 31 33 41 47 53 55 58 61 63 66 66 66 76 86 84 79 79 80 87 90 87 83 80 78
36 34 35 45 41 40 38 38 39 36 50 43 42 43 30 26 27 30 26 30 28 28 30 38 46 49 53 58 62 64 72 76 86 74 91 80 83 78 78 82 86 77 75 76
33 36 40 43 41 38 37 37 34 42 48 36 41 39 26 27 29 28 28 27 25 26 31 34 36 43 49 56 62 70 73 80 86 93 82 91 86 80 71 73 70 70 79 83
38 38 37 39 36 40 38 36 34 35 51 54 38 34 26 23 30 20 25 30 28 30 32 33 34 40 50 53 62 69 72 82 91 98 92 82 85 84 73 72 71 76 83 86
33 38 35 35 38 42 41 39 39 40 54 55 43 36 25 27 22 21 22 23 27 32 35 35 34 36 48 51 61 68 72 85 97 84 77 74 69 56 59 67 69 75 74 82
34 36 34 32 32 28 36 43 41 38 38 46 47 33 30 27 27 34 28 26 25 19 14 22 40 41 38 37 41 52 44 57 65 63 49 42 47 57 61 76 96 99 98 98
38 33 31 30 30 29 29 32 37 39 43 40 43 37 30 27 31 30 32 29 29 28 23 17 16 17 14 18 20 21 20 36 60 67 66 68 69 77 86 97 99 98 97 88
34 30 31 31 31 32 34 28 36 40 39 38 54 37 32 35 36 35 34 30 29 26 28 23 20 24 27 35 48 64 69 71 76 72 70 66 65 77 89 99 100 87 96 87
28 29 29 31 28 30 32 30 37 40 44 42 41 36 38 37 39 33 35 34 30 30 30 29 26 28 36 55 66 76 77 71 67 68 66 67 70 80 84 97 95 90 97 99
29 30 30 29 29 29 29 31 33 38 35 35 29 34 34 33 35 33 34 32 32 31 31 30 29 28 30 33 43 51 51 51 48 47 47 55 75 93 86 83 90 98 99 97
29 30 29 29 30 30 31 33 34 31 31 31 30 29 27 27 35 34 37 32 34 33 30 31 33 34 35 39 47 47 55 54 48 44 42 56 55 59 61 90 92 100 100 98
31 28 30 35 32 35 41 33 34 33 33 33 33 31 34 35 39 34 41 37 33 33 31 32 35 39 42 41 41 36 28 28 32 36 36 40 43 49 67 94 100 100 94 98
39 36 32 36 44 63 37 34 35 34 33 31 29 25 30 30 32 32 32 34 33 35 35 38 41 42 37 31 29 28 27 29 35 40 49 54 60 70 91 94 98 90 98 90
42 43 43 43 46 38 37 37 36 35 34 34 31 36 29 29 33 37 36 39 40 40 40 38 35 32 31 28 26 28 37 47 52 55 56 59 65 76 82 76 85 88 91 93
45 47 50 44 43 60 36 38 37 39 39 33 36 33 29 31 37 38 44 42 38 34 33 34 33 28 26 28 34 41 48 49 46 47 51 61 70 80 77 78 91 95 92 79
52 52 50 45 42 40 41 42 42 43 29 30 34 29 30 30 38 42 42 37 36 38 38 32 28 27 30 33 37 40 42 49 53 63 74 79 81 89 83 78 70 64 62 46
38 46 49 46 47 53 43 41 44 32 27 38 37 33 32 37 42 41 38 40 43 39 33 29 30 33 36 39 47 54 62 60 66 79 90 84 74 68 60 57 48 32 24 22
54 42 41 40 42 41 39 35 41 34 23 35 41 36 36 39 40 41 44 46 40 34 31 34 38 41 46 56 60 60 69 76 89 86 66 60 58 52 44 32 27 24 20 19
51 47 45 43 42 40 39 40 43 25 22 30 43 43 39 41 44 48 49 44 39 34 36 42 46 52 58 62 64 72 93 99 94 66 61 55 44 35 29 27 21 20 22 24
53 48 45 43 42 38 39 37 38 26 22 26 43 44 42 46 49 51 48 48 48 47 52 55 56 66 69 76 86 98 100 88 70 60 50 39 32 30 23 22 25 29 33 34
55 54 46 42 40 37 37 40 39 22 22 28 35 42 41 42 48 50 55 58 60 62 73 67 66 72 84 95 100 100 86 72 58 44 35 34 27 24 27 31 36 36 33 26

GFSCGP_700_rhum_042.txt.gz
RH
44 44 32 26 27 32 33 28 29 32 36 33 37 40 48 43 44 35 53 68 47 34 40 38 39 34 33 32 32 32 34 35 54 57 36 41 49 56 63 69 67 74 80 74
47 39 41 33 34 40 40 33 31 35 32 33 30 32 39 38 41 38 28 35 45 41 18 26 31 37 41 43 47 49 51 54 54 59 60 63 63 69 71 74 75 76 81 84
41 40 40 40 40 42 40 36 37 36 35 30 27 29 26 30 36 39 28 26 24 18 22 30 38 41 45 45 46 51 56 60 64 66 68 71 74 74 72 79 79 82 89 91
45 42 39 44 41 42 35 38 39 42 35 27 29 23 30 35 28 35 38 34 32 29 27 30 33 36 37 39 46 50 53 55 58 65 68 74 76 78 82 82 81 82 89 90
41 39 37 41 38 42 37 37 40 43 36 35 31 25 24 24 28 37 31 36 42 41 37 37 35 39 48 39 41 44 49 52 54 60 67 73 78 83 82 87 87 92 96 88
38 38 42 41 40 38 42 40 42 42 39 32 30 28 24 25 24 26 30 28 34 42 39 44 41 42 48 47 49 49 49 51 58 66 73 84 88 90 85 88 85 92 96 92
45 43 43 36 45 38 40 41 36 34 35 34 40 35 25 28 26 24 24 26 30 37 38 42 46 48 51 55 59 60 61 61 62 92 74 86 86 99 95 81 81 78 93 94
36 34 39 40 44 36 40 38 36 37 36 28 44 30 26 28 26 27 27 25 28 29 29 33 35 45 50 55 58 62 66 72 90 84 98 99 83 84 89 87 78 82 74 84
33 32 37 41 43 39 44 40 38 42 34 36 27 28 26 23 26 28 26 29 27 26 26 28 31 35 41 50 59 66 68 73 78 85 78 76 75 93 88 78 80 67 73 80
37 35 38 40 40 39 42 40 39 38 40 38 28 29 21 27 27 23 22 23 26 28 30 30 32 32 34 37 47 57 68 76 75 84 85 83 88 83 67 57 49 62 72 80
35 37 46 41 44 38 45 43 40 38 39 35 35 27 28 27 29 32 32 29 26 23 19 25 30 32 34 38 44 48 56 66 69 78 89 68 51 48 40 51 64 67 76 89
40 38 41 37 36 33 36 36 39 37 34 45 48 34 29 31 32 31 32 32 30 28 26 21 16 29 38 39 37 39 53 60 59 70 45 43 55 60 64 68 76 84 95 98
41 39 39 38 34 34 37 38 35 36 40 41 51 36 31 32 33 34 31 33 32 31 29 27 19 14 16 22 24 26 28 38 43 48 60 66 67 68 70 70 79 85 98 98
32 37 37 33 29 30 40 36 32 38 45 39 44 34 33 34 35 34 34 31 34 34 31 31 26 23 26 28 38 56 63 66 74 79 69 64 64 62 67 72 78 88 95 100
35 38 38 32 28 27 28 28 40 41 39 37 37 33 34 29 33 31 28 27 35 34 30 31 31 31 33 37 44 50 58 65 51 47 46 45 52 65 77 83 93 100 100 80
32 36 39 38 36 31 31 32 31 38 34 39 37 33 30 35 32 30 32 23 35 31 34 32 31 31 32 35 40 44 48 49 48 52 68 75 54 43 42 43 43 50 79 90
36 34 37 35 40 40 41 33 34 36 38 33 35 33 33 39 35 34 37 35 37 40 34 33 31 32 33 36 40 45 51 50 41 31 31 32 33 33 37 43 52 73 98 96
53 36 47 39 41 69 31 33 35 38 35 36 36 34 36 32 30 27 32 35 34 34 34 32 35 39 40 42 43 37 31 29 27 27 29 37 46 51 53 56 67 83 89 86
59 54 51 48 51 36 32 31 29 31 33 35 36 36 38 33 34 30 30 32 36 36 38 43 43 40 38 35 32 29 25 25 31 39 44 45 43 44 48 56 67 71 66 75
47 56 64 48 50 61 34 34 30 36 35 35 30 25 37 37 38 36 29 40 42 44 44 40 35 34 33 31 25 23 27 32 37 38 39 41 48 59 65 69 72 58 55 49
56 61 66 64 58 46 39 34 36 42 32 35 23 29 33 31 35 34 36 43 46 43 35 35 36 34 29 25 26 31 33 35 38 42 46 57 69 72 59 50 46 44 42 33
56 55 58 70 66 61 40 39 41 32 38 34 33 22 34 32 32 35 40 46 40 36 39 40 36 29 27 31 36 38 40 46 49 53 61 67 57 49 47 44 42 35 30 26
64 60 51 40 42 36 34 36 37 38 38 35 32 20 33 32 33 37 42 41 38 43 43 37 31 31 36 40 43 47 53 56 56 59 67 62 52 47 44 38 33 31 21 21
47 47 53 52 47 41 38 34 36 38 38 38 35 19 31 35 36 43 44 41 45 46 42 35 34 39 43 48 53 60 62 61 62 74 68 58 50 45 37 36 25 22 27 30
48 52 54 52 50 44 42 40 38 38 38 42 37 20 35 40 40 43 45 46 50 46 43 43 45 54 58 60 65 69 72 76 83 76 63 54 46 38 35 24 28 32 34 33
60 52 52 51 50 48 48 48 41 44 42 42 29 23 25 39 42 44 46 50 49 49 52 57 61 73 77 72 70 78 89 94 84 69 56 44 40 31 27 33 36 35 29 23

GFSCGP_700_rhum_045.txt.gz
RH
45 42 35 26 22 20 24 23 26 34 28 28 31 29 53 61 69 63 77 83 58 43 30 38 29 37 56 60 45 34 36 48 51 44 28 23 19 19 21 25 30 34 40 42
42 41 31 31 29 27 27 24 21 25 28 29 28 34 28 49 57 61 61 73 79 83 30 31 42 70 38 37 32 31 39 60 75 66 30 24 24 27 36 47 66 65 64 68
37 34 37 34 29 30 30 28 34 26 35 30 27 25 26 34 51 58 58 64 77 79 46 28 36 60 44 46 44 46 46 49 54 61 59 51 54 56 61 66 66 72 77 81
35 36 39 33 31 30 28 28 30 31 29 27 32 32 35 31 41 56 58 58 61 69 72 32 36 39 42 44 47 50 53 55 58 60 64 64 65 67 69 73 79 82 82 80
35 36 40 35 32 32 30 37 35 33 32 29 25 20 32 26 29 36 50 57 55 58 63 43 32 35 37 42 44 46 48 51 54 56 60 67 69 72 74 78 80 84 87 91
33 34 34 33 32 35 35 39 36 35 31 33 25 22 38 23 20 20 31 46 55 54 57 45 43 32 40 39 40 43 46 48 50 52 57 62 66 68 75 96 89 92 93 91
34 36 37 37 39 38 38 37 35 34 33 34 39 25 23 35 24 25 28 30 41 55 58 61 66 59 43 50 50 51 48 48 49 51 60 59 71 69 77 97 98 97 88 86
34 31 35 37 35 34 37 35 36 65 34 27 36 24 24 26 30 30 31 34 36 44 56 60 59 64 69 47 48 52 54 56 57 59 69 77 90 84 66 76 91 84 85 88
29 30 28 32 35 34 32 34 33 44 36 32 27 22 22 23 24 27 30 38 41 44 44 52 59 63 70 86 75 52 56 65 71 75 86 92 100 94 65 74 94 87 79 67
28 29 30 35 39 37 36 37 36 35 39 45 22 22 21 26 24 25 25 30 37 45 36 47 52 59 69 81 94 69 52 62 69 77 83 95 95 91 76 79 86 63 38 43
30 31 31 41 44 38 38 40 36 34 35 41 36 24 30 24 25 26 29 30 32 35 41 32 34 38 44 65 82 39 37 46 56 60 73 79 84 87 71 56 57 48 60 72
30 33 38 42 38 36 36 34 34 34 32 35 36 33 28 27 27 30 32 33 35 37 42 44 19 18 23 31 37 40 47 49 57 56 62 72 80 82 42 53 60 66 72 76
34 32 35 34 39 41 38 36 33 34 35 37 52 39 31 30 31 30 31 33 35 35 40 31 26 19 24 28 34 39 42 38 49 62 58 54 57 45 62 70 73 74 72 75
37 33 36 34 36 34 34 32 31 33 37 38 34 30 29 31 32 29 29 32 37 38 40 49 34 25 16 15 19 21 23 25 30 45 58 63 72 71 65 56 56 60 74 84
37 35 34 32 31 30 30 31 31 30 30 32 32 28 28 29 29 27 32 36 31 20 35 41 46 34 23 24 29 28 30 41 62 74 72 56 49 49 51 56 77 86 92 96
42 39 37 32 34 30 27 25 24 24 27 28 27 26 27 26 26 27 33 38 33 26 31 33 33 32 32 30 34 35 60 70 64 60 59 53 53 58 77 78 49 43 42 46
41 45 38 40 37 32 31 30 26 25 25 28 29 29 29 28 27 32 40 41 49 34 28 39 35 35 34 35 46 49 52 50 50 53 59 63 53 40 38 35 37 48 54 58
60 56 41 45 41 56 36 33 30 29 28 27 29 30 29 29 28 34 38 42 25 37 37 34 36 33 34 37 40 47 51 51 46 38 31 28 26 29 37 41 41 38 41 48
67 70 55 54 49 40 32 32 32 30 30 27 29 29 29 30 33 32 33 34 26 26 33 34 33 32 40 46 46 42 36 33 31 26 22 24 28 30 30 31 35 42 49 52
72 74 73 65 52 56 38 36 34 29 32 29 28 30 34 33 30 34 40 36 27 29 33 38 37 43 43 39 35 33 31 27 22 21 25 27 29 32 36 42 48 50 43 38
67 80 85 72 60 45 36 33 32 39 28 33 32 31 33 34 34 46 45 36 30 31 41 44 45 39 35 35 34 30 25 23 26 29 31 35 38 40 46 52 48 41 37 34
90 76 74 76 65 67 41 39 39 26 30 42 41 37 34 30 14 30 32 33 33 38 46 46 39 35 36 36 32 26 25 29 34 39 43 45 46 53 57 49 43 40 37 35
56 85 68 61 57 50 38 37 32 36 40 46 41 37 36 36 20 26 31 32 35 42 47 43 36 39 39 34 28 27 32 38 44 50 53 52 54 62 55 49 44 39 37 28
39 54 64 74 63 51 47 40 41 42 37 41 40 40 38 40 26 23 32 33 37 44 44 38 40 43 38 32 31 37 43 48 54 60 63 65 68 63 54 48 42 40 29 28
38 57 50 55 48 57 55 52 41 44 45 44 42 43 45 41 23 24 33 35 41 43 39 42 46 44 39 38 45 54 56 60 65 72 81 82 71 60 51 43 41 30 31 34
50 60 53 61 42 45 49 49 57 61 52 50 48 46 44 40 24 29 37 38 44 43 43 48 49 46 48 54 62 73 76 76 78 91 96 82 66 53 46 45 33 34 37 34

GFSCGP_700_rhum_048.txt.gz
RH
40 42 39 34 29 25 19 20 28 32 36 31 26 30 43 48 58 70 77 49 33 33 32 27 34 43 39 47 68 69 73 77 72 57 61 57 53 40 33 34 39 39 41 46
41 42 39 35 30 25 22 21 22 21 29 27 21 26 40 46 56 60 70 63 32 28 24 35 28 26 28 26 28 35 50 55 62 59 44 26 25 26 29 32 32 35 48 49
39 36 37 33 32 27 24 23 25 34 31 30 26 22 33 43 49 54 57 67 61 15 20 27 34 37 39 34 29 36 52 60 67 70 36 28 23 23 24 28 35 39 59 70
36 34 34 36 29 24 24 25 25 29 28 24 30 29 29 30 49 50 52 58 57 37 16 26 33 32 38 43 43 42 47 60 64 68 66 46 49 42 53 55 61 67 72 76
35 34 32 37 29 27 26 34 33 30 27 26 30 35 26 31 39 44 48 56 60 58 36 28 33 36 35 38 39 47 49 50 49 55 76 95 98 58 63 63 64 67 74 85
32 31 32 34 32 30 29 31 36 34 32 35 28 25 37 32 40 31 42 51 56 57 61 50 30 33 36 38 37 37 39 42 48 56 59 64 100 81 76 76 69 70 80 87
31 30 31 32 31 30 31 33 37 39 39 41 28 27 30 29 27 26 30 38 49 53 54 62 48 29 30 35 35 39 44 46 48 48 51 62 67 84 74 68 74 80 94 96
32 31 30 34 33 34 35 33 40 65 69 52 38 28 25 33 30 27 27 28 39 47 53 55 59 53 32 28 36 38 44 49 47 46 47 58 58 59 71 91 82 91 86 76
29 30 28 32 33 34 33 34 33 53 50 58 45 31 29 27 24 26 28 31 36 34 48 53 58 62 63 51 36 47 51 50 48 51 64 83 56 86 84 83 90 82 80 83
30 31 28 28 31 34 33 34 34 32 52 56 26 22 24 28 24 24 24 30 38 42 43 43 50 57 60 62 65 65 57 56 59 59 61 67 79 80 93 96 82 84 89 86
33 30 29 28 30 30 33 34 44 38 33 49 49 33 34 31 25 24 26 27 31 36 41 34 44 51 58 63 67 75 76 87 81 76 57 72 84 85 90 94 89 82 72 69
30 30 32 31 30 36 34 33 38 37 41 45 46 41 32 32 27 26 30 30 32 34 41 44 24 29 51 62 72 78 84 92 90 66 73 75 79 78 73 60 81 67 64 64
34 32 35 32 42 40 35 34 34 33 34 37 62 46 32 31 30 30 30 32 33 35 37 44 49 26 23 20 36 73 81 67 68 72 63 55 56 59 46 65 64 63 69 69
38 34 34 41 43 37 35 35 41 43 44 49 41 40 34 29 33 30 29 29 31 33 36 41 54 49 26 24 20 22 32 36 39 75 53 38 39 58 62 68 71 65 60 58
36 41 34 33 33 32 35 34 33 33 31 34 37 34 31 27 34 36 38 36 34 36 35 27 43 69 63 30 25 17 15 22 31 53 42 40 55 55 58 52 54 57 61 72
35 44 38 40 34 34 39 43 30 29 27 27 28 29 26 25 27 27 25 26 34 38 38 39 23 70 85 36 32 23 25 33 40 47 61 60 52 56 60 55 61 73 74 44
52 47 39 45 38 35 33 35 32 29 25 24 24 26 26 26 32 26 27 29 33 38 42 39 29 78 72 37 32 33 29 35 48 63 63 57 58 62 64 67 43 32 31 37
58 42 47 47 45 56 38 36 33 30 28 27 25 24 26 28 29 27 28 29 34 40 42 26 34 34 48 38 36 34 39 47 53 52 55 56 58 48 33 27 27 31 31 32
65 65 59 52 52 48 39 40 35 32 31 28 27 26 25 26 29 31 32 30 32 33 31 29 30 43 37 32 32 38 42 47 51 52 42 33 28 24 24 26 27 29 34 39
56 74 75 62 58 63 50 40 33 33 34 30 28 27 27 28 33 33 32 30 32 37 37 28 27 28 35 35 34 46 50 45 37 33 30 25 22 24 27 30 34 37 42 49
82 82 88 83 77 53 42 38 34 36 36 30 30 29 28 32 32 32 30 15 24 42 38 27 27 35 41 43 47 41 36 35 33 30 24 24 28 31 37 38 40 45 51 48
66 97 96 89 83 71 44 38 36 35 31 32 32 40 39 36 36 33 32 20 21 31 30 30 32 42 46 43 37 36 36 35 31 26 27 31 36 42 43 45 48 54 52 47
57 52 83 80 63 58 46 39 41 37 34 33 41 44 47 46 37 38 35 30 21 30 32 35 41 48 46 39 36 37 38 35 29 28 32 38 44 51 56 56 60 58 53 47
37 44 48 50 70 68 83 62 51 46 46 41 43 51 55 49 44 43 41 34 21 31 34 38 44 48 46 40 38 40 39 33 32 35 41 47 56 65 67 69 67 60 51 44
37 27 53 51 49 49 54 69 66 54 52 56 50 50 50 50 48 46 44 31 23 33 36 39 45 49 47 39 40 43 40 36 39 45 53 63 73 76 81 81 66 54 46 44
48 29 39 63 55 42 56 71 80 65 51 49 49 52 51 48 49 50 49 32 27 37 37 40 47 49 43 40 45 46 44 48 53 61 72 85 91 92 94 79 59 47 45 36

GFSCGP_700_rhum_051.txt.gz
RH
23 24 18 14 27 30 30 28 25 20 29 31 31 37 36 40 47 45 79 54 35 20 20 28 19 26 46 45 37 36 35 55 82 97 85 57 64 62 64 64 53 55 50 50
39 38 17 33 38 37 35 27 22 31 36 36 28 30 40 42 46 38 49 45 31 23 26 25 22 19 21 45 60 65 61 43 42 47 62 54 52 57 55 48 42 40 43 48
40 15 27 40 40 36 31 26 22 28 30 30 28 41 42 48 66 58 63 52 47 15 19 32 34 32 24 25 36 46 53 56 53 55 56 63 75 65 38 33 34 34 34 56
46 37 36 39 38 35 26 23 25 28 30 28 29 34 44 50 56 51 58 56 36 14 14 24 32 36 38 36 40 47 48 51 58 56 32 28 23 25 26 26 28 36 54 49
33 38 38 36 35 35 26 25 29 35 34 31 29 34 29 33 55 49 60 53 38 25 18 21 28 32 39 41 40 40 42 44 46 45 41 49 60 34 38 40 45 52 55 78
38 36 34 35 32 34 30 31 30 35 36 45 32 33 34 35 38 46 43 56 49 33 28 25 30 32 30 34 39 44 44 46 48 51 54 58 88 65 64 59 62 71 93 89
38 37 35 33 32 34 31 30 40 59 59 60 38 38 30 28 27 31 37 52 49 46 46 42 30 29 31 29 28 31 36 42 46 51 52 56 74 71 73 72 70 75 77 85
45 39 35 32 31 32 32 31 41 73 86 65 38 39 32 27 28 30 31 31 44 44 47 50 49 45 31 27 29 30 34 40 45 48 52 56 64 62 65 78 73 74 80 86
37 38 34 30 31 32 34 34 33 50 63 72 47 35 35 32 29 28 28 36 33 43 49 50 52 53 54 52 28 28 34 39 44 49 52 51 57 70 68 76 88 80 88 83
38 35 33 31 30 32 33 35 35 42 77 96 46 45 36 34 29 24 28 29 30 39 47 48 47 48 48 49 53 54 40 43 49 49 49 50 49 61 78 78 88 86 89 86
36 38 35 33 35 31 34 33 33 38 45 64 59 40 32 35 29 29 24 30 38 40 40 50 55 58 54 55 58 62 65 94 81 70 70 67 73 70 80 87 94 98 95 96
36 37 40 36 35 32 32 34 31 40 46 49 58 41 34 34 32 28 27 27 29 29 34 33 34 51 57 62 68 66 64 66 51 52 67 79 76 97 62 96 95 87 72 83
39 42 41 37 34 36 31 30 34 34 38 46 59 48 38 36 32 30 30 29 31 32 32 33 30 24 32 52 65 63 62 56 53 61 82 84 93 86 63 57 57 54 58 59
39 43 41 43 38 36 38 36 35 37 37 40 52 41 40 38 36 32 31 28 31 32 34 35 34 26 15 23 24 35 45 50 60 73 72 62 63 59 38 45 52 52 52 57
45 39 39 37 34 37 38 42 39 36 36 42 42 40 38 33 27 31 32 32 32 32 36 38 38 32 26 28 20 26 35 55 58 57 29 29 34 36 40 43 46 51 54 57
38 40 42 42 38 35 35 40 39 37 38 41 39 38 37 30 32 32 30 32 30 34 33 35 35 34 38 40 23 26 30 27 23 25 33 33 36 44 53 50 56 58 61 69
60 38 42 43 41 40 39 38 37 44 40 34 31 28 27 29 30 33 31 28 30 30 30 31 31 35 38 47 48 29 40 39 37 31 31 34 49 64 61 59 63 66 68 43
70 58 42 46 41 58 39 36 35 38 40 36 33 27 26 27 28 27 28 29 28 30 31 32 33 35 34 31 54 49 37 39 41 39 44 55 67 68 62 60 53 35 27 25
99 62 52 51 49 44 37 38 38 36 37 34 30 28 26 26 26 26 27 27 30 31 31 31 33 38 32 27 40 40 42 39 40 47 53 58 60 61 48 35 27 22 25 27
85 78 55 62 58 64 46 39 36 40 38 34 31 29 30 29 27 27 29 30 31 29 17 9 30 36 33 30 30 44 36 31 37 47 57 56 42 35 29 25 25 28 31 34
93 98 94 85 91 59 52 39 33 43 42 34 32 30 30 30 28 31 33 32 26 20 20 11 35 43 35 29 31 36 39 36 48 52 41 35 32 28 25 26 29 36 40 42
98 69 82 74 98 89 52 48 40 31 31 30 31 34 32 35 38 34 30 30 31 30 28 16 28 31 30 28 35 45 46 48 44 37 35 34 31 26 27 33 40 46 50 53
79 62 40 54 49 66 56 50 59 61 52 46 46 42 37 47 48 48 42 42 41 38 35 20 25 31 34 36 46 48 46 40 36 37 37 35 31 30 34 41 45 48 55 65
41 31 43 50 52 58 55 57 48 52 57 50 55 46 39 43 46 49 48 47 46 43 38 21 27 32 37 44 50 49 43 38 39 39 38 37 34 35 41 46 54 66 75 77
48 38 45 44 42 44 40 54 67 60 61 56 57 54 54 52 52 52 52 51 50 48 38 25 30 36 43 47 52 51 44 40 40 41 41 40 40 43 50 62 76 81 86 84
44 49 46 44 32 60 49 51 63 50 69 66 69 59 54 54 50 50 52 50 48 49 48 33 34 41 46 52 56 55 51 46 44 44 44 48 54 64 78 92 99 98 97 94

GFSCGP_700_rhum_057.txt.gz
RH
20 31 24 16 20 21 19 16 30 32 31 35 30 38 33 32 33 39 31 32 18 19 22 21 20 32 54 73 98 89 100 100 100 100 100 100 98 97 90 89 99 99 95 90
28 22 21 24 29 25 23 23 33 36 32 35 30 34 34 33 33 38 40 37 33 18 22 27 21 28 37 26 44 66 82 94 100 100 100 100 100 99 99 97 98 98 97 89
26 22 19 23 22 19 27 36 39 36 28 30 35 37 34 30 34 32 30 26 25 14 21 30 30 28 35 39 30 30 51 70 96 97 98 99 99 99 100 98 98 100 92 83
37 27 31 31 24 23 36 42 41 40 38 33 34 38 30 29 30 35 33 34 19 12 16 28 30 33 33 38 37 27 26 38 54 73 90 88 95 97 100 100 100 99 82 75
31 29 25 36 27 35 40 39 40 36 34 37 36 38 32 30 31 32 34 35 21 18 14 19 31 35 32 34 39 39 30 26 29 34 49 61 56 64 73 73 72 64 58 54
31 34 40 34 25 36 38 40 41 36 38 48 34 37 35 31 28 29 33 35 38 29 20 18 28 34 28 31 32 33 35 34 31 30 30 32 35 39 44 47 42 41 42 40
36 40 35 37 37 36 41 41 44 45 58 60 38 47 37 33 24 24 29 33 34 36 32 23 22 27 26 24 26 28 28 28 34 36 37 35 31 32 34 35 33 32 32 37
38 36 27 27 36 37 39 39 43 54 72 52 45 47 38 38 36 30 29 33 35 37 42 41 31 24 26 27 25 24 23 23 25 30 37 43 46 45 44 58 58 55 54 55
42 41 35 32 32 35 37 39 36 37 65 73 44 36 29 34 32 26 26 28 30 34 37 40 43 45 47 49 38 28 28 27 24 29 38 43 48 52 59 64 68 73 78 76
41 45 38 32 36 34 38 36 38 44 75 74 55 50 35 34 33 29 27 27 28 30 35 39 44 49 50 48 48 50 39 33 34 34 37 41 45 50 55 63 71 73 74 83
36 44 38 35 36 36 38 37 37 39 38 64 66 46 28 33 34 32 28 28 25 26 30 33 40 46 51 52 54 51 49 49 41 38 40 48 49 52 54 60 63 75 78 83
52 43 44 38 32 38 35 36 36 38 50 47 42 42 36 34 32 34 31 26 28 26 26 28 32 35 36 50 57 58 54 50 51 60 62 72 70 62 66 67 72 91 86 77
71 54 50 47 43 40 40 39 39 38 38 40 55 45 37 32 35 34 29 29 27 27 28 31 32 30 32 33 33 40 53 52 50 56 60 73 73 65 61 55 73 100 75 70
65 68 57 55 48 40 39 38 36 37 37 40 40 36 36 38 36 34 37 34 32 30 31 31 32 32 32 32 32 33 32 30 26 32 57 67 64 60 65 71 77 96 80 66
72 78 67 58 51 44 42 40 38 40 39 40 38 35 33 33 33 35 36 35 35 32 32 32 31 32 33 32 32 33 31 27 29 26 32 45 60 67 65 71 72 66 68 59
65 69 77 73 54 47 45 43 43 43 42 43 40 37 35 35 37 36 38 38 36 35 33 31 31 31 32 34 31 30 31 30 26 26 25 28 44 55 64 66 52 58 55 56
75 62 66 90 70 58 52 51 47 46 44 41 44 42 40 38 41 38 38 38 35 35 34 32 31 32 30 29 30 33 34 35 35 32 32 40 41 46 53 62 56 56 61 63
72 71 69 96 82 92 56 53 47 48 44 40 41 40 43 43 40 40 38 35 31 34 33 32 29 33 30 31 35 34 36 38 40 36 52 59 55 50 50 54 55 56 58 65
56 72 73 78 79 82 59 54 49 46 42 40 39 36 35 38 41 32 30 29 28 29 32 32 31 29 29 34 36 34 36 34 46 40 64 74 61 52 55 57 59 60 63 68
61 69 71 98 91 84 52 51 46 52 50 43 41 37 42 42 41 37 36 35 30 27 30 29 30 30 36 38 26 18 14 25 41 42 43 55 55 50 51 55 59 64 68 82
100 99 99 100 96 73 53 58 45 69 63 45 43 42 40 41 41 38 36 34 32 29 28 28 29 34 35 23 20 18 15 12 34 38 40 44 57 65 66 59 70 78 82 81
56 71 77 87 90 87 74 60 68 85 72 50 46 42 41 41 40 39 42 41 35 35 35 34 30 27 29 28 25 23 17 22 33 35 34 39 42 55 59 75 80 64 43 34
62 61 58 69 64 58 50 51 54 96 98 72 52 44 44 41 43 35 33 37 36 37 34 36 35 36 34 35 33 28 20 22 32 36 38 43 54 66 83 64 43 38 38 39
55 51 47 48 38 33 27 41 49 61 85 64 68 69 70 64 60 50 43 41 39 37 41 46 48 49 48 45 43 37 23 28 34 38 42 47 57 71 59 45 41 40 42 44
68 63 63 58 49 48 34 28 45 44 65 47 50 62 74 83 71 65 59 53 51 54 58 58 57 52 50 50 48 45 35 28 37 42 48 55 59 59 52 51 50 53 57 62
67 64 61 73 90 82 68 59 42 46 50 52 63 63 63 68 82 76 73 60 57 58 62 60 57 56 52 53 55 55 53 47 42 49 56 65 69 66 66 67 70 74 78 86

GFSCGP_700_rhum_060.txt.gz
RH
27 27 22 18 19 25 27 21 20 21 33 36 30 31 32 37 35 33 40 27 17 12 20 26 22 39 60 90 97 95 99 98 99 95 100 99 98 60 76 84 80 85 94 95
27 27 24 21 28 29 29 33 18 30 34 37 31 32 32 35 34 31 37 44 25 13 18 27 28 30 44 57 79 94 95 100 97 100 99 100 99 92 94 94 83 92 96 94
20 30 26 23 29 33 30 29 16 34 34 38 31 28 31 32 32 31 32 30 28 14 16 27 31 28 43 39 43 72 84 92 100 98 100 99 100 100 100 98 95 91 97 99
24 27 26 28 25 26 27 16 26 40 43 44 38 48 30 31 29 28 27 34 36 18 12 24 30 33 35 42 33 28 48 69 89 100 98 100 99 99 98 99 97 98 98 97
26 25 31 31 25 25 22 17 37 43 44 46 40 41 34 31 31 29 28 34 37 24 14 20 30 31 33 37 37 27 27 32 54 76 91 96 99 99 99 95 100 100 99 98
30 39 37 28 30 31 26 36 43 43 42 56 38 39 36 33 28 24 22 28 34 32 23 17 25 25 24 31 31 33 30 28 28 33 40 43 52 55 60 64 68 80 84 86
37 39 42 38 42 38 38 43 49 51 64 65 36 40 37 33 28 36 25 24 31 35 39 26 22 24 25 25 31 32 29 29 32 30 30 34 36 36 36 36 39 44 49 48
44 41 41 36 38 42 44 43 46 60 68 52 45 50 33 38 38 35 30 29 31 34 37 41 31 23 24 27 25 24 26 26 28 33 37 34 33 34 35 36 37 37 38 42
40 37 28 29 24 33 41 44 40 41 61 71 45 38 34 26 28 32 28 26 25 30 34 36 39 39 38 36 30 27 26 27 25 30 38 43 45 46 43 46 51 46 37 34
35 41 38 30 37 31 31 36 42 46 75 78 56 50 34 30 34 30 30 27 26 27 30 35 38 40 44 47 50 46 38 31 29 30 32 37 44 48 52 56 59 64 68 71
43 40 37 44 44 40 39 41 41 41 45 60 62 48 32 28 35 36 31 28 28 28 26 32 37 40 44 50 51 50 48 48 43 35 33 35 39 43 49 53 57 72 74 78
41 46 42 32 34 39 41 39 37 42 50 49 46 42 34 32 36 34 32 30 28 28 27 26 27 29 32 36 43 51 53 52 51 53 48 47 51 43 59 62 59 58 63 67
75 56 54 50 46 47 43 36 43 42 39 42 55 46 38 36 31 32 34 33 31 28 28 26 28 31 33 32 32 31 39 44 49 51 50 56 62 62 70 57 60 68 73 86
81 82 64 62 52 49 44 41 39 42 42 44 41 39 36 36 35 34 35 34 30 30 30 29 29 31 32 32 32 27 32 28 29 30 30 30 54 66 68 68 68 72 76 87
65 74 93 81 74 64 55 51 44 38 38 41 41 39 38 37 34 33 33 33 35 34 34 32 30 30 33 33 32 32 31 30 30 29 24 24 27 44 72 75 62 68 78 83
42 74 70 79 82 66 58 52 49 45 44 44 43 42 41 38 38 36 35 33 34 36 37 35 33 32 31 32 31 32 32 30 33 33 33 26 25 27 35 67 62 63 71 81
48 63 71 68 71 75 61 59 54 52 50 47 45 44 42 39 43 41 39 38 38 38 38 36 36 35 32 32 32 31 30 32 34 36 37 37 33 33 40 48 52 52 60 65
64 95 73 63 62 92 64 58 59 56 51 52 50 48 46 40 40 41 43 41 39 40 37 36 35 35 32 29 32 32 30 36 36 37 36 41 35 51 51 52 52 55 59 61
58 86 86 64 58 47 41 42 40 57 53 51 52 49 48 45 38 36 38 38 34 34 30 29 31 33 32 30 32 33 30 36 37 39 39 49 35 72 69 61 53 57 58 62
77 100 97 97 90 84 43 39 36 31 35 28 40 53 48 43 42 40 37 40 40 37 32 29 32 34 32 32 31 30 33 38 38 40 32 48 44 51 53 62 56 61 66 73
73 75 96 97 82 70 61 46 43 47 33 29 35 49 52 52 49 44 43 39 43 37 37 32 28 30 32 30 29 32 38 38 26 31 26 64 53 46 48 57 65 59 61 60
87 83 85 86 90 86 58 56 45 49 53 78 72 68 66 72 53 45 42 40 42 43 40 37 34 33 31 30 32 39 37 24 20 20 28 52 47 46 46 62 63 77 66 55
54 56 59 65 50 46 50 48 49 37 31 49 95 84 89 79 75 68 53 43 36 37 35 40 40 36 32 31 31 30 32 30 26 24 30 40 39 43 40 41 43 46 89 100
59 61 61 58 48 49 54 47 40 31 25 50 71 72 64 81 83 81 74 68 50 34 34 38 38 42 44 43 43 43 42 41 46 40 31 41 42 42 47 57 65 98 100 100
65 66 66 59 59 53 46 51 57 41 33 47 56 55 56 60 69 86 84 78 77 68 49 47 47 54 57 62 69 57 54 52 46 40 39 45 51 51 54 79 100 100 94 77
79 72 69 65 60 53 48 57 66 63 62 49 43 54 54 68 72 67 71 88 85 82 76 64 64 70 72 69 66 62 59 60 61 58 55 56 55 60 63 70 76 80 84 87

GFSCGP_700_rhum_063.txt.gz
RH
36 44 30 26 23 18 26 24 19 16 19 23 34 34 31 32 34 35 38 41 37 16 21 26 29 34 41 98 95 100 94 98 98 97 98 97 100 99 97 98 100 95 100 99
43 32 32 28 22 18 19 24 22 18 16 28 35 32 27 30 32 32 33 36 40 27 19 27 30 33 39 62 88 92 100 91 100 95 99 99 98 94 95 100 100 98 99 95
13 24 32 30 27 24 24 29 23 20 21 35 38 31 28 26 26 30 30 30 34 31 16 25 30 31 42 33 61 76 91 89 86 99 99 100 100 97 98 98 99 99 96 99
14 18 28 28 29 25 25 22 25 25 24 41 41 40 32 27 28 30 29 28 34 38 14 21 27 28 36 39 28 43 66 85 94 100 98 98 99 98 96 91 98 96 100 95
33 18 28 37 28 28 27 25 25 25 28 47 43 43 35 30 31 27 27 26 30 39 20 16 23 25 28 30 32 26 36 56 86 80 99 99 98 98 100 100 98 98 99 95
38 31 28 19 26 27 33 28 31 42 48 54 44 41 36 34 30 30 34 22 26 37 30 17 18 22 24 28 28 30 28 32 41 66 92 100 100 100 100 100 99 97 96 98
47 43 38 32 39 41 42 37 47 54 60 50 39 40 33 29 28 30 36 26 24 28 41 30 23 22 24 22 26 26 30 29 29 35 47 60 88 97 99 100 100 100 99 100
51 49 47 41 44 32 36 40 47 53 55 43 44 46 35 26 28 35 30 32 29 33 35 37 34 25 24 25 23 22 22 27 32 30 31 34 38 40 57 72 84 85 87 88
45 45 37 34 35 40 49 53 38 43 55 61 49 39 34 30 21 28 29 29 27 32 34 36 39 38 32 31 27 26 24 22 26 35 37 36 35 38 36 37 38 43 55 61
37 40 36 30 38 44 43 41 48 47 52 59 52 50 37 28 24 33 29 30 27 31 32 34 32 34 37 43 45 42 33 28 28 27 34 41 45 46 45 45 48 46 40 39
43 39 48 35 44 39 39 43 41 43 44 47 47 43 35 31 33 34 36 33 29 28 29 34 36 36 39 44 48 47 45 45 40 30 30 30 35 43 48 52 53 55 59 60
47 50 41 46 45 45 42 36 40 42 56 48 46 42 35 32 30 31 34 34 30 28 29 27 34 36 40 43 46 48 50 47 46 47 46 38 34 35 36 40 46 51 56 62
64 48 54 47 37 38 41 42 44 43 42 43 54 44 37 38 36 31 31 32 35 29 27 28 26 27 29 30 32 38 46 54 54 54 50 51 51 39 41 45 45 55 70 59
75 87 57 48 60 60 50 43 40 38 43 46 48 44 40 36 35 34 32 29 34 36 30 29 27 28 29 32 33 33 29 33 32 37 39 35 39 47 56 58 61 56 68 74
72 97 92 85 78 78 76 54 51 52 44 44 44 42 39 39 37 35 34 32 33 33 35 35 34 32 30 31 33 33 29 29 26 28 28 28 24 29 35 53 70 72 70 73
69 81 83 50 74 77 73 63 56 55 52 51 48 47 45 42 41 43 37 35 34 34 33 36 38 37 35 32 32 33 33 33 29 30 30 33 33 28 24 29 32 57 75 81
59 61 66 50 52 47 57 61 58 58 56 56 56 55 52 49 41 43 45 39 38 38 36 34 36 36 36 34 32 32 32 33 34 34 34 35 37 38 36 34 45 43 46 62
47 99 69 56 45 60 50 57 49 47 54 44 30 38 49 53 51 47 42 40 41 42 40 38 38 38 37 35 35 35 32 32 32 30 36 37 39 42 44 41 44 56 56 53
43 86 90 66 49 40 40 50 44 43 40 34 23 21 23 41 46 46 44 41 43 38 38 35 36 36 35 35 34 34 30 32 32 33 36 38 40 42 48 51 59 67 64 60
52 53 91 99 93 73 33 34 48 38 28 35 36 38 34 30 47 47 45 45 44 44 51 46 40 34 31 30 33 32 32 30 33 32 34 41 41 41 40 48 41 65 67 63
75 89 92 99 85 68 50 46 37 49 45 44 49 68 79 63 63 51 48 53 50 50 46 50 48 44 37 32 34 34 31 32 33 34 37 45 49 46 40 36 40 45 49 64
68 76 85 77 93 84 62 67 60 56 46 45 41 43 54 84 74 71 61 50 50 46 44 46 44 42 44 38 34 34 34 31 33 38 44 48 44 42 33 55 55 42 42 58
83 76 74 71 64 69 73 67 60 49 34 29 35 35 50 87 82 78 70 61 55 53 44 42 40 41 43 42 40 42 40 39 38 42 37 27 25 37 40 40 42 40 42 47
60 58 62 56 58 53 54 56 51 47 40 36 34 25 58 78 65 80 81 78 72 65 59 46 42 36 41 37 37 36 35 35 35 35 43 42 44 52 34 35 44 51 79 92
63 64 64 63 62 58 58 54 47 42 39 42 57 62 37 51 50 68 74 81 72 88 87 89 68 58 51 51 46 43 47 46 47 50 61 64 54 42 40 41 48 57 75 99
77 77 74 74 69 59 51 54 55 55 49 70 62 73 67 54 60 66 83 80 78 78 76 96 99 87 82 75 65 68 76 81 77 86 88 64 62 61 65 67 66 88 97 99

GFSCGP_700_rhum_066.txt.gz
RH
14 54 47 39 38 31 26 26 25 22 27 21 26 28 30 32 32 33 33 34 36 42 18 21 29 31 36 81 99 98 91 92 94 96 99 99 100 100 100 100 96 78 98 95
65 58 46 44 39 38 31 29 26 23 32 24 21 27 30 29 32 30 31 30 32 35 28 20 28 30 32 67 95 92 88 88 94 95 99 94 98 100 100 100 99 86 95 94
48 42 46 52 44 38 32 29 28 27 35 30 34 31 29 27 28 25 26 30 29 34 30 16 27 26 34 36 74 81 83 81 91 92 95 100 99 100 98 98 99 99 98 100
45 36 45 50 45 39 33 32 33 33 34 20 38 27 25 28 28 30 28 27 29 32 37 13 24 24 30 28 30 58 77 88 94 98 97 99 89 98 95 97 99 98 90 99
48 41 39 42 35 38 35 33 39 36 34 28 25 33 22 29 30 26 28 32 26 27 39 16 20 20 24 31 26 27 38 54 83 90 90 98 100 100 98 98 100 100 90 100
70 50 42 34 38 42 42 39 40 39 31 34 30 34 24 22 29 28 31 37 28 27 34 24 17 21 18 25 25 26 26 36 53 84 98 97 98 99 99 99 98 99 100 98
71 53 54 40 37 41 43 36 36 37 40 32 32 36 30 27 29 33 36 37 33 24 34 31 23 22 19 16 19 20 26 26 33 50 73 86 99 97 98 99 100 99 98 98
52 54 50 47 41 43 38 35 32 39 38 32 40 35 31 31 32 25 31 28 31 24 26 36 32 23 25 21 16 16 21 27 26 28 34 52 70 78 99 98 99 99 98 96
46 52 53 48 47 42 44 43 37 41 51 37 36 36 36 32 31 32 34 30 30 30 30 34 37 32 24 26 23 18 16 20 27 30 31 34 32 33 38 60 73 93 98 100
45 44 49 53 49 47 47 44 44 43 44 46 33 36 32 31 30 30 38 39 30 28 32 34 36 39 38 31 30 27 23 20 23 30 34 36 38 40 40 38 37 41 53 76
49 48 52 44 51 42 47 45 46 38 36 38 40 34 37 35 34 36 38 35 31 31 32 34 35 38 39 41 43 43 42 36 26 23 28 37 40 43 46 48 47 49 43 41
57 56 46 46 46 41 38 40 41 40 42 43 40 36 33 34 38 31 32 32 35 29 28 30 33 38 36 36 41 46 47 46 44 43 31 27 30 34 40 45 50 52 53 54
70 54 40 42 48 49 46 42 42 40 40 42 51 36 38 37 39 38 35 36 33 36 28 28 28 31 37 38 40 42 43 50 52 46 47 47 43 36 32 33 38 43 43 47
88 76 49 33 36 47 48 45 43 48 46 42 37 36 38 39 39 34 38 39 37 33 36 31 28 28 29 29 30 31 33 37 44 52 55 55 53 52 52 50 41 42 45 47
98 99 93 83 78 78 74 67 54 45 43 42 40 40 40 40 41 42 36 37 36 35 33 35 36 33 29 28 29 32 34 33 27 29 36 40 38 39 52 60 68 71 60 55
89 96 96 78 74 77 72 66 62 55 52 51 50 47 46 48 49 43 42 43 44 42 36 34 34 37 37 37 31 32 33 33 30 30 23 27 29 28 25 23 32 44 57 70
59 87 93 70 65 56 61 67 62 58 58 57 53 54 52 55 50 47 48 46 47 44 40 38 38 35 34 37 37 34 33 35 33 32 27 29 30 31 32 35 35 26 29 43
45 90 82 80 74 68 66 56 60 63 64 46 42 31 25 24 27 50 50 44 45 42 41 41 41 40 38 38 38 37 36 32 35 34 33 32 32 33 36 38 39 41 41 30
42 93 99 60 61 54 47 56 64 60 67 54 54 42 28 22 27 59 49 46 44 44 42 42 44 44 38 36 38 37 37 36 35 36 34 35 36 37 38 42 42 45 52 48
69 58 82 99 61 45 43 42 44 44 45 50 42 44 46 41 35 70 40 53 51 48 45 47 42 42 38 37 36 32 32 35 36 36 32 32 33 38 42 46 47 47 44 42
100 96 82 81 72 57 62 67 51 45 56 48 41 42 41 39 60 58 60 56 57 56 48 46 43 46 44 44 40 38 36 32 34 34 31 31 33 35 42 50 53 47 45 46
88 80 85 77 79 81 59 53 62 77 67 53 48 44 34 34 33 68 78 76 67 61 55 54 50 48 46 48 44 41 37 34 33 34 36 35 35 35 38 49 55 59 57 41
80 75 76 72 67 70 78 80 71 67 56 44 33 34 28 26 28 52 80 84 77 75 70 59 57 48 45 43 42 45 44 42 41 36 36 36 34 36 43 56 64 56 45 45
74 68 82 81 74 75 66 56 50 44 45 45 37 32 27 25 30 71 65 65 80 88 83 76 71 64 56 50 44 43 43 43 42 42 42 44 42 48 56 52 50 46 55 55
73 71 73 72 72 66 51 49 50 52 49 47 42 36 54 50 38 36 41 43 68 88 87 79 71 72 70 68 72 59 52 46 46 48 51 49 46 54 59 60 63 61 58 48
85 78 84 75 75 68 71 60 56 61 63 58 53 46 45 54 64 71 62 64 67 71 88 91 86 72 69 98 99 97 91 76 70 68 67 68 71 74 71 71 74 76 70 69

GFSCGP_700_rhum_069.txt.gz
RH
32 44 47 42 41 35 26 22 23 24 22 24 25 23 23 23 28 37 44 47 65 38 38 21 14 23 31 37 77 96 99 93 99 92 95 98 99 100 100 100 100 100 94 82
28 33 38 40 41 37 31 26 25 24 22 24 24 19 19 21 24 29 38 45 53 45 32 26 13 22 31 35 64 95 79 88 99 96 86 88 98 99 100 100 99 92 70 72
56 29 42 44 43 38 35 32 28 26 24 29 26 23 22 22 24 25 32 34 43 62 29 34 13 20 28 25 63 84 79 80 93 84 92 94 98 99 100 100 99 96 71 81
84 44 46 50 47 40 34 32 30 27 27 26 23 19 22 21 23 26 30 36 38 55 29 35 14 16 20 25 30 63 77 76 81 79 87 87 85 94 97 99 100 99 85 85
93 64 41 51 47 44 39 34 31 30 30 29 27 22 21 22 20 21 22 26 44 48 30 34 18 17 14 23 24 27 51 68 76 85 88 81 95 100 100 100 100 100 97 96
88 92 82 45 38 47 36 37 34 33 33 32 30 27 22 21 20 23 22 25 37 52 28 33 24 18 16 15 19 23 26 36 53 70 90 88 99 96 99 97 99 99 99 99
94 92 77 63 36 45 34 36 34 38 36 36 27 26 24 21 23 24 26 27 37 47 30 31 28 21 21 12 13 13 22 23 31 47 76 89 93 91 99 100 99 98 98 99
98 85 71 57 40 39 36 35 34 44 42 30 28 28 27 27 26 29 31 33 33 45 33 28 32 22 23 20 12 11 18 22 23 25 40 68 88 89 92 96 88 98 99 100
78 70 72 74 53 44 40 36 32 32 44 38 30 30 31 32 28 26 27 32 37 43 46 26 30 31 24 25 21 13 13 18 21 26 26 30 47 58 70 72 88 90 93 97
82 68 68 87 70 54 50 41 36 32 49 52 34 31 28 28 27 26 31 36 41 45 55 31 28 36 30 25 27 23 17 14 20 24 27 32 35 33 36 39 39 47 76 89
63 58 71 62 79 58 48 43 39 36 36 39 42 36 32 32 34 30 35 37 43 50 49 43 34 35 36 37 31 34 31 23 18 19 28 29 34 40 41 39 35 35 38 44
56 58 67 60 52 62 56 45 44 40 40 35 37 47 36 35 36 37 36 36 38 40 51 35 35 35 36 39 36 38 43 42 40 34 22 24 34 37 38 42 47 46 47 46
97 68 54 61 64 50 59 55 46 46 50 73 54 38 40 37 38 36 35 34 37 41 38 44 29 31 34 38 36 37 41 45 47 46 44 40 30 26 29 36 44 47 49 50
99 94 75 54 53 45 46 43 43 46 47 45 49 43 38 36 36 38 37 36 39 42 44 47 51 31 31 34 39 38 40 42 46 50 52 50 46 45 44 36 33 33 38 43
100 87 93 61 82 59 55 48 45 42 44 41 41 37 34 36 38 39 42 43 43 39 38 42 46 54 38 34 34 32 30 31 32 35 37 36 49 54 56 55 53 55 47 42
94 95 98 83 62 64 56 51 49 49 50 49 48 46 46 45 46 49 50 48 45 43 46 48 51 47 47 56 38 37 30 30 33 33 30 24 25 38 51 49 52 57 62 67
81 95 96 98 91 74 64 63 66 68 59 58 52 57 65 56 60 65 63 58 52 40 43 49 40 44 41 48 56 36 37 37 35 33 33 31 29 23 23 26 27 27 27 25
85 87 97 98 91 81 86 68 62 74 74 68 71 68 64 61 57 70 35 45 47 47 44 46 44 42 42 40 40 40 39 37 37 36 35 33 32 24 25 28 30 33 34 34
76 89 92 89 88 92 60 74 85 94 86 69 75 75 64 58 53 78 87 58 28 44 47 45 44 44 41 41 42 40 38 38 38 39 38 38 34 30 28 30 31 32 35 37
83 83 84 86 92 76 72 84 94 72 88 66 68 69 57 32 48 52 61 47 38 50 42 42 45 44 43 44 42 39 36 36 40 36 34 38 41 38 35 32 32 33 35 39
78 81 73 77 62 48 64 73 56 63 94 88 86 89 68 51 58 35 35 47 63 67 63 57 52 50 45 45 46 47 43 42 43 40 35 34 36 39 39 37 40 42 41 42
73 73 70 67 63 61 75 66 65 96 100 89 73 55 45 40 36 28 29 36 80 80 74 72 66 58 51 46 45 45 45 45 46 43 40 41 39 38 38 36 37 38 42 52
74 62 63 60 60 88 94 96 74 69 62 60 51 40 33 26 23 25 30 60 67 78 78 72 78 73 67 60 54 51 49 46 45 46 43 42 43 41 39 40 40 41 52 59
68 91 78 85 83 96 92 92 65 54 49 41 39 37 33 29 31 46 42 49 62 62 57 54 65 77 79 67 62 62 59 54 50 45 44 44 44 47 47 47 51 69 75 73
87 78 60 62 94 94 89 66 55 47 47 47 46 48 46 41 35 42 47 40 34 42 38 41 59 70 73 78 77 63 81 79 73 69 74 66 54 59 61 72 86 76 88 86
67 72 69 76 75 72 89 72 60 58 56 57 62 62 60 58 55 44 43 56 68 72 79 88 86 75 76 75 79 75 72 100 100 96 97 100 100 99 93 99 100 100 100 99

GFSCGP_700_rhum_072.txt.gz
RH
37 50 56 50 46 47 37 30 26 22 23 23 23 23 22 21 24 28 35 39 44 60 56 55 31 11 21 22 36 70 88 85 89 81 90 99 98 90 95 99 98 98 99 99
78 46 42 46 46 42 41 39 34 26 24 24 23 23 23 20 22 23 30 35 41 55 58 33 31 14 16 23 40 55 82 83 92 81 92 95 99 95 90 97 99 99 98 98
98 80 58 42 37 44 41 39 36 29 25 25 23 24 26 22 19 19 22 29 37 44 53 42 29 17 13 22 30 66 74 84 76 77 81 87 94 98 98 98 98 98 99 98
92 84 66 47 57 37 39 39 37 32 30 29 25 24 23 22 21 20 22 26 30 34 52 48 28 21 14 18 22 51 72 76 74 82 73 81 86 86 87 98 98 99 99 100
86 99 94 81 76 44 45 47 56 39 32 30 27 26 25 21 22 21 22 25 31 33 45 47 28 25 18 13 23 22 37 70 70 72 74 82 86 82 94 96 100 100 99 96
75 80 97 89 70 61 58 66 80 47 37 36 30 30 27 25 22 20 21 22 25 34 44 49 29 29 20 14 16 19 21 29 54 70 77 85 89 90 84 88 97 99 98 98
91 81 95 90 85 74 67 85 80 58 44 43 32 30 28 24 23 23 23 23 26 37 47 52 26 30 21 20 10 12 19 21 27 42 62 89 92 90 93 94 96 100 100 99
93 92 81 89 90 89 58 74 52 64 53 38 32 28 27 24 22 24 27 25 30 36 43 51 31 31 25 23 19 8 12 20 21 26 44 69 91 91 88 95 94 99 100 98
92 81 88 91 86 96 75 65 52 45 51 52 34 27 32 28 26 26 26 28 30 32 40 46 30 31 29 27 23 20 10 11 19 25 25 40 66 84 86 86 95 100 100 98
95 97 82 82 95 90 96 61 67 43 60 81 42 35 29 30 28 25 26 32 36 39 41 51 37 27 32 30 26 27 25 17 14 19 23 26 29 38 65 82 83 85 91 94
98 98 81 96 99 87 68 64 69 48 39 55 60 44 63 37 28 27 34 36 41 47 46 52 57 30 34 35 29 28 30 28 26 18 21 24 25 29 32 34 41 52 65 87
99 99 85 72 66 98 84 74 65 56 56 40 41 46 37 37 33 34 34 34 38 42 48 58 62 45 34 36 36 37 34 36 36 37 34 25 23 27 28 29 34 38 38 40
97 96 71 68 62 92 98 89 86 75 68 58 72 43 41 40 38 35 34 35 37 40 43 60 67 61 45 37 37 40 37 40 42 44 45 43 38 33 27 26 32 36 40 44
97 92 96 73 83 99 97 76 81 91 91 76 78 53 56 51 38 36 38 38 42 48 48 46 54 65 66 36 34 39 39 38 43 46 47 49 50 48 44 40 31 30 32 36
94 96 98 95 83 81 100 88 82 86 80 62 55 64 68 56 48 39 40 42 42 42 42 42 45 52 61 64 38 36 40 42 41 42 39 35 38 45 52 50 48 46 43 42
82 97 86 74 86 95 98 82 79 92 81 58 46 59 54 58 50 49 50 50 45 47 47 56 55 49 52 60 58 47 42 36 34 32 32 33 34 33 31 38 51 56 58 59
100 81 96 93 97 95 72 88 86 77 65 71 70 77 66 60 60 62 56 50 46 50 47 48 55 46 51 51 57 72 75 62 39 36 32 32 35 34 30 28 29 32 41 42
92 97 94 95 98 86 67 57 65 83 76 66 87 91 81 65 69 71 56 49 46 45 47 42 43 42 48 42 44 50 47 54 63 42 38 38 37 35 34 30 29 23 22 24
91 95 88 97 94 88 82 95 83 78 94 97 99 92 77 54 74 88 81 75 70 60 33 38 48 48 47 47 44 42 43 43 51 79 81 58 40 40 40 35 30 24 25 29
87 87 93 89 91 91 88 92 99 99 98 95 98 83 74 62 89 90 71 58 70 81 62 42 47 54 50 51 47 46 43 43 41 47 48 43 44 38 40 47 45 41 30 29
88 93 90 82 94 62 62 92 77 94 94 98 99 72 56 48 56 39 32 34 83 99 97 43 32 48 59 62 61 56 49 47 46 48 48 48 47 54 51 48 43 46 47 40
80 87 88 77 74 69 77 97 81 95 99 100 92 72 51 42 39 36 30 29 25 26 26 41 56 39 38 38 48 60 64 60 53 51 60 65 52 62 59 59 60 50 53 51
74 70 71 62 64 75 79 81 95 99 98 80 61 53 47 44 36 28 24 22 25 28 57 71 65 57 43 47 59 61 60 56 56 58 57 52 47 49 50 56 58 62 56 71
84 70 76 74 89 91 92 89 81 68 58 51 48 44 39 36 32 29 25 24 31 31 43 46 54 51 40 52 60 64 60 58 53 48 53 56 58 60 64 59 56 60 71 70
92 85 75 86 98 96 98 82 68 62 54 55 53 47 38 37 39 38 35 36 32 36 46 50 48 44 44 45 61 72 71 65 58 53 80 100 90 82 75 96 88 85 91 92
98 94 76 98 97 97 98 86 76 70 61 53 50 47 45 53 52 50 47 44 44 45 45 51 66 78 80 83 83 81 79 75 70 57 52 56 90 100 100 100 99 100 100 100

GFSCGP_700_rhum_075.txt.gz
RH
64 54 29 37 54 52 50 54 49 38 32 30 33 25 22 22 21 26 30 32 34 37 48 50 45 29 17 14 24 46 67 85 88 80 94 92 99 99 100 100 100 98 95 98
80 70 49 36 52 55 56 52 48 43 40 35 34 32 24 24 23 23 24 30 34 37 48 48 45 30 20 14 21 51 61 82 84 84 83 96 86 100 100 100 100 100 100 100
75 78 82 72 52 58 60 55 46 42 40 39 34 32 24 23 23 22 20 24 30 39 41 42 44 40 23 14 19 49 54 70 75 85 86 88 96 96 98 93 98 100 99 98
80 76 72 77 66 53 59 47 46 43 42 65 43 37 28 25 24 23 19 19 29 38 40 43 47 41 25 17 16 30 59 69 74 77 75 80 72 78 91 94 97 97 99 100
56 58 76 89 81 65 61 47 53 52 63 67 51 43 34 28 26 25 22 19 26 30 26 27 34 39 28 20 12 19 42 61 71 70 86 77 82 86 89 92 99 100 100 100
76 58 77 66 89 78 91 58 66 61 80 86 63 53 33 29 26 25 23 21 20 25 28 30 35 39 32 20 13 11 19 32 43 55 72 77 84 82 79 84 98 100 100 100
69 61 72 86 99 79 82 92 92 92 96 90 52 46 36 30 25 27 23 22 22 24 30 34 34 39 31 21 19 8 12 19 23 29 49 74 84 93 89 84 86 94 100 99
78 80 85 79 90 89 90 99 88 92 87 56 38 38 33 28 26 26 23 22 23 28 31 33 34 38 31 23 22 15 8 16 20 24 30 50 64 93 90 89 95 91 100 100
82 84 81 98 98 96 90 99 83 98 73 95 62 35 32 29 26 25 23 25 26 28 34 34 35 29 32 26 25 22 12 9 14 19 23 28 37 56 78 87 94 99 100 100
79 88 72 90 96 99 99 94 96 99 93 93 62 53 33 28 26 26 26 26 31 32 33 35 36 28 29 29 25 26 24 14 13 16 21 23 27 30 37 65 70 75 87 99
97 96 82 90 85 98 99 99 99 99 95 77 90 69 47 33 27 25 28 30 33 39 37 40 39 35 28 32 31 27 28 29 20 17 19 22 25 26 28 27 35 46 60 75
92 98 98 87 74 91 93 98 99 98 87 71 61 72 52 38 34 30 35 36 35 36 48 49 48 52 33 33 36 32 31 32 34 28 27 27 26 23 24 27 28 31 33 37
83 97 97 71 67 70 96 82 99 98 99 99 94 72 77 55 45 36 39 38 40 43 46 57 63 60 42 37 37 39 39 39 34 40 38 38 39 42 38 30 29 32 32 33
80 82 82 95 96 99 98 99 92 98 99 91 87 70 78 57 46 47 42 43 46 49 54 60 61 60 49 39 34 37 40 44 42 38 43 46 46 45 45 41 35 32 32 33
89 82 83 85 96 97 98 94 98 100 91 99 81 74 97 83 66 64 50 46 51 53 50 64 75 83 82 79 56 45 44 42 44 43 39 41 45 49 51 53 52 46 41 36
96 84 76 71 77 88 92 97 97 99 94 98 93 97 95 98 83 82 48 44 42 44 47 52 54 55 62 77 80 68 62 60 63 47 45 45 38 34 40 50 53 56 57 55
98 94 86 90 83 94 96 98 99 99 99 92 99 98 90 96 98 91 58 48 44 43 45 49 52 53 53 57 67 76 64 50 48 47 49 53 55 44 34 34 36 37 37 49
82 93 97 84 90 98 97 92 98 99 99 99 99 100 99 99 99 89 73 61 55 49 43 46 44 48 53 48 51 67 63 58 56 53 49 53 56 57 49 42 38 36 31 30
46 71 87 74 98 82 98 83 95 97 100 100 99 99 99 99 98 76 80 68 70 55 38 31 43 48 46 47 45 46 47 53 60 56 52 54 53 51 50 58 56 44 40 37
67 84 95 73 96 97 83 87 93 97 92 98 99 99 98 100 98 99 90 86 76 50 37 24 27 37 53 50 49 49 50 51 48 51 51 53 55 50 54 59 56 58 58 56
84 91 97 77 88 74 91 95 94 98 99 98 96 98 96 89 94 89 58 38 38 31 23 23 22 33 33 33 41 52 58 56 56 55 50 52 54 55 56 60 63 64 63 62
78 96 95 90 87 76 88 94 98 97 98 97 97 95 74 48 41 40 36 33 28 26 27 25 32 59 62 55 46 46 45 42 44 52 59 58 56 55 59 61 64 66 68 68
87 78 75 63 63 95 82 82 96 100 86 91 78 64 62 50 49 47 44 36 25 20 21 26 38 47 48 47 42 36 41 47 50 48 45 45 45 52 57 57 62 66 64 72
96 82 77 66 93 99 100 100 100 99 95 88 73 51 44 41 39 33 30 27 24 23 24 27 30 31 32 30 30 35 40 42 50 59 61 54 48 41 41 56 60 62 71 75
98 88 83 98 97 99 98 99 90 93 90 81 59 50 44 39 36 39 40 38 37 37 33 29 27 26 32 41 51 58 62 64 67 69 74 76 69 56 47 49 47 80 93 92
98 98 98 96 98 96 96 97 90 68 63 57 51 47 44 45 48 51 50 47 44 40 37 35 35 33 32 36 46 57 63 63 59 55 63 85 89 81 65 55 60 61 75 94

GFSCGP_700_rhum_078.txt.gz
RH
34 39 30 31 36 49 60 54 52 48 43 45 45 46 35 29 31 25 22 22 26 25 27 31 38 44 46 30 16 17 39 51 78 82 91 98 96 99 99 98 98 100 98 100
60 67 45 49 40 32 44 58 56 53 44 48 47 42 36 32 30 28 22 23 27 29 33 33 33 39 48 36 17 14 42 57 76 79 76 98 94 95 100 100 85 98 100 98
73 64 77 72 75 59 49 61 60 57 47 46 46 44 36 33 30 24 23 23 23 28 32 33 35 42 49 36 20 13 42 51 65 80 79 86 90 100 100 98 100 100 100 100
74 61 70 74 77 76 68 55 62 62 60 66 53 64 48 35 34 34 24 24 23 23 32 32 38 43 48 38 21 11 26 57 64 70 76 75 78 89 98 100 100 100 100 98
50 50 54 59 49 62 75 64 62 62 64 77 60 62 45 39 34 30 26 25 24 21 26 32 30 45 50 39 22 12 13 32 64 67 72 80 74 82 99 100 100 100 100 100
55 54 49 42 58 74 91 81 62 71 74 78 61 65 51 44 32 31 28 26 26 21 25 34 32 49 48 40 23 12 9 16 29 56 68 73 80 86 81 90 95 93 100 96
60 46 57 73 78 82 98 89 88 90 89 80 47 60 50 34 31 29 27 25 24 23 23 30 28 31 36 44 23 14 7 15 19 29 45 67 75 83 83 81 77 81 97 99
63 63 64 71 76 94 97 92 98 88 95 71 51 57 44 35 30 26 27 25 23 23 26 25 28 33 42 36 23 18 8 11 16 22 31 48 73 80 87 84 80 82 83 92
74 80 79 72 75 93 99 99 90 98 98 99 71 49 36 30 30 28 27 27 23 24 24 25 31 35 44 31 24 21 12 10 14 19 23 29 50 67 79 82 81 80 83 91
77 81 70 73 88 98 92 98 99 98 96 96 65 56 44 30 31 28 29 25 23 24 25 29 33 37 36 33 25 24 23 16 14 19 22 23 27 46 71 77 76 83 88 94
82 83 81 90 83 72 87 99 98 98 91 98 98 77 72 52 46 31 28 26 26 29 32 33 36 40 43 35 27 26 28 28 23 17 21 24 25 26 30 41 60 73 86 91
77 99 94 62 61 76 78 99 99 94 98 85 86 75 93 67 47 37 32 35 33 33 33 37 41 45 52 41 31 26 27 31 32 29 27 26 25 24 26 30 29 33 38 50
71 93 93 61 71 93 99 88 98 99 98 98 96 81 100 80 52 47 40 37 36 41 45 44 47 54 64 48 39 39 28 27 30 37 37 40 43 44 35 28 31 32 35 39
78 77 71 82 80 97 89 97 97 99 99 90 90 81 91 91 66 59 53 41 45 48 50 56 60 69 58 62 61 54 52 46 40 36 37 40 42 44 44 40 35 32 34 35
71 84 73 61 61 74 69 70 90 97 98 99 80 86 100 97 99 85 75 52 50 55 58 66 69 65 66 73 74 71 72 66 59 54 50 45 42 42 42 46 47 45 40 35
76 84 84 65 69 86 99 99 82 76 96 99 98 98 98 99 99 98 79 56 55 63 73 75 77 76 70 63 56 54 53 54 57 56 53 56 57 58 59 60 58 55 55 54
79 96 96 85 57 56 88 83 92 80 84 97 99 89 99 99 99 94 72 63 66 60 58 59 58 56 56 60 62 66 67 61 57 56 55 54 55 54 52 52 51 50 54 58
69 69 88 79 53 97 84 97 98 99 100 97 100 100 98 99 100 95 87 65 65 60 58 58 56 58 60 59 63 62 59 58 56 59 58 58 56 53 52 52 54 50 51 53
51 53 76 70 66 53 67 96 99 98 99 100 99 100 99 99 100 100 92 82 63 57 52 55 56 54 54 54 52 55 55 54 48 48 52 54 56 58 59 59 58 58 56 56
41 44 79 83 86 81 94 97 99 99 99 99 100 98 98 99 97 99 100 92 71 61 54 41 28 28 39 57 63 62 60 58 57 57 52 51 51 52 54 56 57 59 62 58
83 94 93 92 81 59 45 71 98 99 99 100 100 98 96 98 99 99 86 57 45 37 40 31 20 16 13 16 24 31 40 48 55 58 59 58 58 60 55 53 52 56 60 62
84 94 95 95 93 84 72 89 98 98 99 97 97 97 97 97 95 70 48 43 36 32 26 22 17 18 30 42 50 45 40 42 44 44 42 47 54 57 58 59 58 57 56 57
98 92 78 71 73 86 78 95 94 92 96 96 94 98 96 94 72 57 40 38 34 30 26 21 19 19 19 32 38 35 29 28 27 29 30 30 35 40 41 41 43 48 63 67
98 97 91 74 98 99 98 99 87 97 96 86 83 70 66 52 40 36 34 32 31 30 27 24 22 18 17 18 21 25 24 26 28 29 28 27 27 29 32 42 48 48 52 47
98 98 96 95 97 98 98 98 97 97 95 86 75 74 65 52 41 38 36 37 36 34 33 33 31 29 26 26 26 30 29 28 30 34 35 35 36 37 37 40 53 69 70 58
98 98 98 97 98 96 97 94 98 81 86 67 59 52 55 52 46 43 45 45 43 41 37 34 31 29 28 29 29 31 32 31 32 32 35 37 43 47 45 51 70 80 75 63

GFSCGP_700_rhum_081.txt.gz
RH
21 25 27 20 35 48 53 54 57 59 53 52 49 42 39 34 30 26 24 22 20 22 22 25 25 28 33 40 47 45 19 18 42 61 76 82 86 96 100 100 100 97 99 91
35 26 23 32 39 46 42 38 40 39 47 56 51 46 45 38 33 30 30 26 22 21 22 23 26 31 34 40 50 45 16 28 50 63 72 77 92 99 100 100 98 98 99 95
35 38 45 54 61 78 62 49 40 50 60 56 53 48 44 40 37 32 30 32 24 22 23 27 28 32 35 42 51 36 15 29 51 59 65 77 90 96 100 100 99 99 100 99
40 42 58 59 63 69 80 62 68 65 64 66 62 68 55 52 37 30 31 34 23 23 25 27 27 32 34 45 53 31 16 20 54 61 60 67 85 93 98 100 99 100 100 99
41 54 64 59 47 61 77 69 78 74 68 70 67 77 64 52 41 28 32 30 24 26 27 24 22 31 38 47 50 35 16 16 50 61 59 62 69 83 99 100 100 100 99 100
40 50 57 44 49 55 61 75 93 74 72 87 71 75 62 52 38 28 32 28 28 27 28 27 24 31 38 53 49 38 16 14 28 57 63 64 65 76 84 98 100 99 100 100
50 48 49 51 68 70 81 95 91 92 92 80 56 63 56 40 40 32 32 32 27 28 27 27 22 28 36 48 49 39 17 13 18 28 53 71 70 75 84 95 97 99 99 100
56 56 54 70 70 84 91 92 87 88 94 83 53 59 48 31 28 29 32 30 28 27 27 25 21 30 35 40 47 27 17 11 17 20 27 47 76 77 82 82 88 96 99 100
62 64 63 74 73 86 99 98 87 98 90 98 76 58 47 54 43 35 32 26 25 25 25 23 21 34 34 45 40 25 18 9 15 19 21 26 41 72 88 86 86 81 84 90
67 68 72 70 74 90 98 99 99 99 96 92 72 65 80 70 59 47 31 26 24 24 24 22 26 34 39 50 39 24 21 12 14 20 22 26 30 53 76 88 82 81 86 88
72 75 82 86 72 64 82 99 93 99 93 96 96 91 79 85 75 50 34 27 26 23 22 24 32 36 44 55 35 26 25 23 19 19 23 25 29 32 51 73 78 82 86 83
85 94 94 51 52 76 88 98 97 99 99 89 87 73 85 84 75 56 34 26 25 24 25 29 34 42 52 55 35 27 27 29 26 23 22 25 25 28 30 34 44 53 62 72
74 93 84 44 72 88 99 99 99 98 99 97 93 69 66 89 81 56 54 33 28 27 30 33 39 48 60 63 51 28 26 27 27 29 28 34 40 37 29 32 35 36 40 49
82 72 72 70 56 62 60 62 74 83 98 98 95 79 80 71 98 75 73 67 37 35 34 37 42 52 66 59 56 51 48 42 31 29 32 34 34 32 31 32 32 35 38 39
68 68 77 64 58 55 68 66 67 99 87 98 68 98 92 78 94 99 99 97 58 46 41 43 46 55 60 62 66 68 70 60 51 47 41 38 36 36 36 36 35 34 33 36
70 71 78 66 58 61 62 36 49 75 76 100 90 76 100 99 88 99 100 100 75 66 54 53 54 58 61 58 56 58 58 58 56 56 56 53 49 49 49 46 45 46 45 43
74 67 82 81 57 52 47 91 67 81 100 100 100 64 71 99 99 90 100 100 98 96 78 70 68 67 68 65 63 61 60 58 56 56 56 58 60 58 56 57 54 52 53 56
64 62 80 78 54 78 49 50 57 90 99 97 98 93 99 96 97 98 99 99 99 99 81 68 63 60 60 60 61 63 66 68 66 64 60 62 60 54 56 60 61 61 63 64
51 63 87 84 74 46 29 50 88 98 98 99 100 97 96 89 79 99 99 100 100 98 83 76 67 66 65 64 62 62 62 61 59 50 47 46 47 50 53 57 62 62 64 65
68 68 87 80 84 81 45 53 45 85 98 99 99 100 99 99 99 99 99 99 100 98 90 76 74 73 67 59 55 55 55 56 55 57 56 51 49 49 49 51 52 54 60 66
62 78 95 98 92 70 52 54 76 98 98 99 98 99 99 100 99 99 98 98 98 98 94 86 54 41 31 28 28 37 44 48 56 60 59 58 58 58 58 58 57 56 58 58
79 83 98 99 95 82 62 72 94 98 98 98 98 99 97 98 98 95 95 96 94 73 66 58 43 21 17 28 40 46 43 37 39 45 48 48 50 53 54 54 56 58 59 60
94 86 87 80 87 100 89 74 73 97 96 98 98 97 97 96 95 96 90 56 48 58 67 49 25 22 21 22 32 36 37 35 31 29 30 31 32 29 27 28 31 36 38 39
97 98 98 93 99 100 100 82 92 99 98 97 97 96 95 90 90 82 61 48 46 43 40 36 32 29 24 21 22 23 24 24 26 29 30 25 22 22 20 19 19 19 18 17
96 98 98 98 100 99 98 98 97 97 95 96 96 97 93 85 65 62 52 48 47 46 43 40 36 34 33 32 31 31 29 28 28 28 29 27 26 26 27 30 32 38 39 42
98 96 98 96 98 96 97 96 97 96 96 82 78 78 71 66 61 59 58 55 50 47 44 40 36 34 33 32 33 32 32 33 33 30 29 29 27 26 25 28 32 43 55 62

GFSCGP_700_rhum_084.txt.gz
RH
22 36 32 10 15 24 26 32 44 40 44 43 41 37 24 42 44 43 36 33 28 21 21 21 21 20 24 27 29 31 44 52 40 21 50 63 67 78 85 96 100 100 100 100
40 31 23 28 36 44 47 47 43 37 34 55 53 37 20 30 30 39 35 35 30 25 22 21 22 24 25 29 35 41 46 56 24 37 61 68 75 84 95 99 98 100 99 100
36 34 34 38 42 49 50 56 55 58 61 59 53 33 22 21 25 27 33 34 29 27 28 22 23 25 25 31 36 41 51 56 17 42 61 69 78 91 98 99 100 98 99 100
41 35 37 60 73 67 71 60 67 70 66 74 69 77 36 28 30 31 28 30 28 33 30 24 23 25 26 32 37 44 54 47 14 45 63 68 74 91 96 100 100 100 99 98
39 36 43 47 48 58 72 75 58 59 89 88 78 74 40 45 36 30 27 28 26 34 29 23 25 24 27 33 40 48 53 35 13 38 64 66 71 84 98 100 99 100 99 100
39 62 66 53 49 52 57 70 66 78 86 87 67 67 61 45 48 42 34 24 29 34 26 25 27 26 29 34 41 51 51 31 12 22 58 64 68 78 88 100 98 99 100 100
55 55 51 56 52 60 69 83 82 92 94 87 53 70 61 40 38 41 37 30 34 34 32 30 30 28 26 32 37 52 50 28 12 18 32 58 70 77 89 100 100 99 100 100
50 53 53 55 64 67 77 84 73 93 92 84 68 63 47 64 50 40 37 31 35 34 31 30 28 27 24 29 36 49 51 22 12 19 23 31 59 76 85 91 100 100 99 100
58 61 72 78 74 72 96 95 76 96 82 95 73 59 63 77 70 58 40 30 33 32 29 27 27 27 23 34 39 50 46 18 12 19 23 29 41 66 80 85 88 100 100 100
61 69 75 78 76 75 84 96 99 96 99 96 71 72 87 82 71 58 47 32 30 30 24 28 26 22 24 36 44 57 32 14 13 19 24 27 37 56 71 86 87 86 92 99
61 71 85 78 69 68 88 94 96 94 98 98 98 76 91 86 91 70 51 39 27 25 26 25 26 22 32 39 53 58 25 16 14 21 25 27 30 45 67 81 87 85 81 84
74 83 75 58 58 70 91 94 96 99 96 98 100 72 76 72 70 78 66 39 30 26 26 27 25 31 36 46 59 52 23 21 16 19 24 27 29 30 42 74 78 77 82 84
93 78 59 47 80 87 98 99 99 98 96 98 99 74 68 63 70 57 88 70 39 29 26 26 32 37 43 52 58 46 25 24 22 20 22 27 28 30 34 36 49 62 69 76
72 66 60 59 59 63 55 54 67 93 99 83 80 66 51 50 67 71 68 100 86 43 28 33 36 43 50 58 56 55 28 27 26 28 27 30 33 31 32 36 39 40 41 42
63 64 57 56 50 65 65 64 45 46 55 97 46 63 46 66 85 78 88 100 100 79 34 36 39 47 54 59 59 57 32 27 28 29 33 35 41 39 35 32 32 36 39 43
72 67 62 52 43 57 57 45 55 62 58 70 64 70 70 66 100 100 84 100 100 98 62 46 45 50 59 60 61 56 53 48 44 36 33 34 40 43 42 43 44 42 38 36
60 60 72 76 45 40 40 52 76 41 79 100 99 68 100 87 94 96 98 100 100 100 84 65 56 57 59 68 69 64 62 65 62 58 57 55 54 51 49 48 48 49 50 53
53 54 70 68 57 80 47 54 42 70 52 88 95 100 95 96 100 99 98 98 100 100 100 96 76 82 83 85 78 79 71 64 60 68 64 62 61 63 65 65 59 58 58 59
55 67 77 75 82 58 32 72 60 57 40 74 86 74 99 98 100 100 100 98 98 99 100 100 100 91 98 92 89 83 73 69 66 62 58 53 50 55 59 57 58 60 61 59
60 60 90 85 89 84 56 50 59 70 94 94 94 76 99 99 100 100 100 99 100 98 99 99 100 97 97 79 68 67 64 58 56 53 53 52 53 63 59 52 51 52 50 56
58 68 98 100 90 80 62 57 73 93 98 97 98 99 99 99 100 100 99 99 99 98 98 94 92 94 74 56 52 54 51 49 55 58 60 61 63 62 59 59 61 66 68 57
80 88 99 98 95 88 72 74 92 97 98 98 98 98 98 98 98 98 98 98 98 97 97 98 97 89 69 49 36 34 33 30 33 34 41 51 54 57 56 57 58 57 55 55
95 97 98 88 96 100 95 99 85 88 97 97 97 97 97 97 97 96 96 96 96 96 94 76 67 87 86 53 54 52 48 48 46 42 38 38 39 40 40 38 35 33 32 34
97 96 96 98 98 99 100 100 97 94 98 97 96 96 97 96 96 96 96 94 81 73 58 53 67 77 51 31 30 30 31 36 36 32 30 28 26 25 23 20 20 21 21 23
92 94 96 98 99 100 100 98 97 97 97 97 97 97 97 95 94 95 94 87 66 56 50 46 42 39 37 34 32 32 31 31 30 28 29 28 26 24 23 22 21 21 23 22
87 95 96 97 97 97 96 97 96 97 96 96 95 92 93 94 91 89 84 73 61 56 54 52 46 42 40 38 36 35 34 32 32 32 34 33 31 29 28 26 28 31 33 38

GFSCGP_700_rhum_087.txt.gz
RH
26 34 27 8 5 16 19 29 41 34 24 22 17 11 14 11 12 10 12 16 18 28 29 21 21 21 21 20 20 22 28 30 36 50 60 23 55 64 56 64 96 95 99 100
41 35 29 25 31 42 42 41 43 40 32 39 31 8 14 10 9 11 11 9 14 23 28 26 22 22 21 22 22 26 31 37 40 57 58 23 60 72 80 90 95 100 99 98
44 39 38 38 44 47 45 47 48 54 56 46 49 18 13 14 13 10 10 14 16 17 29 26 21 21 21 22 24 29 34 40 48 63 41 35 63 72 85 90 100 100 100 99
54 51 51 48 48 52 62 51 68 74 75 59 64 47 33 24 12 26 38 32 24 21 28 24 29 27 23 23 25 31 37 43 52 64 20 48 65 67 80 93 100 100 100 100
49 40 36 56 55 72 83 68 67 66 67 88 76 78 51 20 34 40 47 40 34 25 28 31 33 25 23 25 25 33 39 49 56 50 14 55 66 66 78 96 100 100 100 100
45 41 41 62 56 54 68 61 56 74 89 80 66 66 50 31 44 35 38 46 40 34 28 35 28 25 26 25 27 35 43 49 59 27 15 50 67 66 80 96 100 100 100 100
60 49 47 62 64 65 67 76 74 82 81 60 64 74 47 44 54 58 41 38 42 36 36 33 25 27 26 25 28 34 45 52 56 15 17 40 67 70 77 90 100 99 100 100
62 71 54 54 52 63 74 78 67 64 74 67 75 65 55 71 88 83 72 45 37 39 35 33 30 29 27 27 26 33 43 56 45 14 20 30 54 76 76 92 100 100 100 100
59 73 67 64 64 75 88 93 81 93 85 77 63 58 60 76 79 72 68 58 35 36 35 32 31 30 30 28 25 33 42 60 34 15 20 26 37 67 79 81 96 100 99 100
64 90 95 89 86 89 87 88 98 94 90 87 57 61 57 79 75 66 61 57 46 30 33 31 32 31 28 28 27 36 46 65 18 18 21 25 34 48 78 83 88 98 99 100
62 60 87 79 82 80 91 91 95 96 95 84 77 54 90 95 81 70 54 54 63 35 34 31 28 27 27 28 35 43 57 50 14 19 25 25 30 42 69 83 86 91 98 97
60 63 72 76 75 74 88 89 93 96 94 99 98 71 73 74 62 52 54 52 49 46 32 30 27 28 27 31 38 47 60 33 14 21 26 28 30 32 63 77 86 82 83 89
69 71 59 96 95 84 86 96 98 90 92 95 94 68 80 58 46 47 46 56 50 63 37 29 29 28 29 37 44 55 57 22 15 19 25 27 31 36 42 71 81 82 79 83
78 62 50 44 51 57 55 53 60 72 88 70 75 69 30 27 35 54 53 63 66 67 47 37 36 32 36 42 52 55 57 22 18 18 22 28 29 31 37 43 58 70 70 72
68 60 54 56 48 49 57 51 49 46 45 78 38 64 33 59 76 63 88 82 84 94 96 84 34 41 42 50 59 57 59 25 22 23 23 26 34 33 31 33 38 41 46 50
62 63 51 42 40 51 50 44 47 62 59 56 83 67 86 83 89 92 98 84 94 97 100 100 68 52 48 53 58 59 58 30 28 27 31 31 40 42 38 37 35 34 35 36
64 59 60 65 47 37 37 65 65 62 56 67 72 64 61 83 99 100 100 98 98 100 99 100 97 66 65 60 61 61 65 46 38 34 32 33 35 39 42 41 41 42 42 43
68 70 68 62 57 50 60 44 49 43 38 44 72 99 100 97 100 96 92 98 99 100 100 99 100 97 72 68 74 71 76 81 75 75 67 63 55 54 54 58 60 59 57 59
73 91 81 94 83 52 77 74 53 65 65 98 96 78 82 100 100 100 100 99 99 97 100 100 100 100 99 92 92 96 96 99 80 75 71 64 63 61 63 62 62 61 60 63
65 88 99 95 78 66 42 40 55 66 100 90 85 86 99 100 100 100 99 99 100 100 98 100 100 100 100 100 100 100 100 98 94 95 64 58 54 52 58 61 62 62 66 67
68 82 100 100 88 73 56 59 67 94 97 99 96 97 99 99 99 99 99 100 100 100 97 98 99 99 100 100 100 100 98 100 95 94 76 63 62 60 59 60 62 65 66 64
87 94 95 98 93 84 73 86 87 100 94 97 97 97 98 97 97 98 98 98 99 98 98 98 94 98 98 98 98 97 95 83 80 71 58 52 46 53 54 59 61 62 63 65
97 98 97 99 99 79 84 99 93 98 98 97 96 96 97 97 96 97 97 97 98 98 97 97 97 97 96 98 98 95 90 78 65 57 54 49 50 58 57 52 49 49 47 45
91 86 97 97 97 100 97 93 100 99 98 97 96 97 96 96 96 96 96 95 96 95 93 87 91 94 92 92 94 90 79 68 64 54 50 44 39 35 30 25 25 26 24 24
87 94 97 98 97 96 95 97 98 97 96 97 96 97 96 96 97 97 96 96 95 94 91 73 57 54 58 64 66 66 60 55 43 35 33 36 32 28 28 27 26 25 24 23
87 96 96 96 96 98 97 96 96 97 96 96 95 96 96 94 95 96 96 95 95 95 94 90 84 69 55 50 45 42 42 41 38 35 34 31 30 30 29 29 29 27 26 26